FW6030 Weather Reports


time (UTC)temp
F
wind
direction
speed
knots
gust
knots
rain 1hr
in
rain 24hr
in
rain mn
in
humidity
%
barometer
mb
20260508131022 62 360 2.6 7.0 0.00 0.00 0.00 81 1014.7
20260508130943 62 360 3.5 7.0 0.00 0.00 0.00 81 1014.7
20260508130824 62 326 3.5 7.0 0.00 0.00 0.00 81 1014.7
20260508130723 62 360 3.5 7.0 0.00 0.00 0.00 81 1014.6
20260508130624 62 360 3.5 7.0 0.00 0.00 0.00 81 1014.6
20260508130525 62 360 2.6 5.2 0.00 0.00 0.00 81 1014.6
20260508130425 62 360 2.6 4.3 0.00 0.00 0.00 82 1014.6
20260508130329 62 360 1.7 4.3 0.00 0.00 0.00 82 1014.6
20260508130229 62 360 1.7 4.3 0.00 0.00 0.00 82 1014.6
20260508130129 62 360 1.7 5.2 0.00 0.00 0.00 82 1014.7
20260508130029 62 360 2.6 5.2 0.00 0.00 0.00 82 1014.6
20260508125931 62 360 2.6 5.2 0.00 0.00 0.00 82 1014.8
20260508125850 62 360 2.6 5.2 0.00 0.00 0.00 81 1014.7
20260508125732 62 360 3.5 5.2 0.00 0.00 0.00 81 1014.7
20260508125616 62 360 3.5 5.2 0.00 0.00 0.00 81 1014.7
20260508125516 62 360 2.6 5.2 0.00 0.00 0.00 81 1014.6
20260508125417 62 360 2.6 5.2 0.00 0.00 0.00 81 1014.7
20260508125337 62 360 1.7 5.2 0.00 0.00 0.00 81 1014.8
20260508125217 62 360 1.7 4.3 0.00 0.00 0.00 82 1014.8
20260508125137 62 360 1.7 3.5 0.00 0.00 0.00 82 1014.8
20260508125018 62 360 1.7 3.5 0.00 0.00 0.00 82 1014.9
20260508124939 62 360 1.7 3.5 0.00 0.00 0.00 82 1014.9
20260508124821 62 360 1.7 3.5 0.00 0.00 0.00 82 1014.9
20260508124722 62 360 1.7 3.5 0.00 0.00 0.00 82 1014.9
20260508124621 62 360 1.7 3.5 0.00 0.00 0.00 82 1015.0
20260508124522 62 360 1.7 3.5 0.00 0.00 0.00 82 1014.9
20260508124423 62 360 0.9 2.6 0.00 0.00 0.00 82 1014.9
20260508124322 62 360 0.9 3.5 0.00 0.00 0.00 82 1015.0
20260508124243 62 360 0.9 3.5 0.00 0.00 0.00 82 1015.0
20260508124127 62 30 0.9 3.5 0.00 0.00 0.00 82 1015.0
20260508124027 62 29 0.9 3.5 0.00 0.00 0.00 82 1015.1
20260508123927 62 29 1.7 4.3 0.00 0.00 0.00 82 1015.0
20260508123848 62 360 1.7 4.3 0.00 0.00 0.00 82 1015.0
20260508123748 61 360 1.7 4.3 0.00 0.00 0.00 82 1015.1
20260508123627 62 360 1.7 4.3 0.00 0.00 0.00 82 1015.0
20260508123528 61 360 1.7 4.3 0.00 0.00 0.00 82 1015.0
20260508123429 61 360 1.7 4.3 0.00 0.00 0.00 82 1015.0
20260508123335 61 360 2.6 4.3 0.00 0.00 0.00 82 1014.9
20260508123255 61 360 2.6 4.3 0.00 0.00 0.00 82 1014.8
20260508123135 61 360 2.6 4.3 0.00 0.00 0.00 82 1014.7
20260508123034 61 360 2.6 4.3 0.00 0.00 0.00 82 1014.8
20260508122916 61 360 2.6 4.3 0.00 0.00 0.00 82 1014.7
20260508122838 61 360 2.6 4.3 0.00 0.00 0.00 82 1014.6
20260508122717 61 360 2.6 4.3 0.00 0.00 0.00 82 1014.7
20260508122620 61 360 2.6 4.3 0.00 0.00 0.00 82 1014.7
20260508122522 61 360 2.6 4.3 0.00 0.00 0.00 82 1014.7
20260508122423 61 360 2.6 4.3 0.00 0.00 0.00 82 1014.8
20260508122323 61 360 1.7 4.3 0.00 0.00 0.00 82 1014.8
20260508122224 61 360 1.7 3.5 0.00 0.00 0.00 82 1015.0
20260508122144 61 360 1.7 3.5 0.00 0.00 0.00 82 1015.0
20260508122023 61 360 1.7 3.5 0.00 0.00 0.00 82 1015.0
20260508121928 61 360 0.9 3.5 0.00 0.00 0.00 82 1015.0
20260508121829 61 71 0.9 3.5 0.00 0.00 0.00 82 1014.8
20260508121729 61 71 0.9 3.5 0.00 0.00 0.00 82 1014.8
20260508121630 61 360 0.9 3.5 0.00 0.00 0.00 82 1014.9
20260508121530 61 360 1.7 3.5 0.00 0.00 0.00 82 1015.0
20260508121431 61 360 1.7 3.5 0.00 0.00 0.00 82 1014.9
20260508121335 61 360 0.9 4.3 0.00 0.00 0.00 82 1014.9
20260508121216 61 360 0.9 4.3 0.00 0.00 0.00 82 1015.0
20260508121116 61 360 0.9 4.3 0.00 0.00 0.00 82 1014.9
20260508121016 61 59 0.9 4.3 0.00 0.00 0.00 82 1015.0
20260508120917 61 57 1.7 4.3 0.00 0.00 0.00 82 1015.0
20260508120838 61 360 1.7 4.3 0.00 0.00 0.00 82 1015.0
20260508120716 61 360 2.6 4.3 0.00 0.00 0.00 82 1015.0
20260508120621 61 360 2.6 4.3 0.00 0.00 0.00 82 1015.1
20260508120521 61 360 2.6 4.3 0.00 0.00 0.00 83 1015.1
20260508120442 61 360 2.6 4.3 0.00 0.00 0.00 83 1015.1
20260508120321 61 360 2.6 4.3 0.00 0.00 0.00 83 1015.1
20260508120222 61 360 1.7 3.5 0.00 0.00 0.00 82 1015.1
20260508120123 61 360 1.7 3.5 0.00 0.00 0.00 82 1015.1
20260508120023 61 360 1.7 2.6 0.00 0.00 0.00 82 1015.1
20260508115928 61 360 1.7 2.6 0.00 0.00 0.00 82 1015.1
20260508115827 61 360 1.7 3.5 0.00 0.00 0.00 82 1015.1
20260508115729 61 360 1.7 3.5 0.00 0.00 0.00 82 1015.2
20260508115628 61 360 1.7 3.5 0.00 0.00 0.00 82 1015.2
20260508115528 61 360 1.7 3.5 0.00 0.00 0.00 82 1015.3
20260508115429 61 360 1.7 3.5 0.00 0.00 0.00 82 1015.3
20260508115333 61 348 1.7 3.5 0.00 0.00 0.00 82 1015.2
20260508115234 61 360 1.7 3.5 0.00 0.00 0.00 82 1015.2
20260508115154 61 360 1.7 3.5 0.00 0.00 0.00 82 1015.2
20260508115034 61 360 1.7 3.5 0.00 0.00 0.00 82 1015.3
20260508114935 61 360 1.7 3.5 0.00 0.00 0.00 82 1015.2
20260508114835 61 360 1.7 3.5 0.00 0.00 0.00 82 1015.3
20260508114735 62 360 1.7 3.5 0.00 0.00 0.00 82 1015.4
20260508114621 62 360 1.7 3.5 0.00 0.00 0.00 81 1015.3
20260508114521 62 360 1.7 3.5 0.00 0.00 0.00 81 1015.3
20260508114422 62 360 1.7 3.5 0.00 0.00 0.00 81 1015.3
20260508114322 62 360 1.7 3.5 0.00 0.00 0.00 81 1015.3
20260508114243 62 360 1.7 3.5 0.00 0.00 0.00 81 1015.3
20260508114123 62 360 1.7 3.5 0.00 0.00 0.00 81 1015.3
20260508114024 62 360 1.7 3.5 0.00 0.00 0.00 82 1015.3
20260508113927 62 360 1.7 2.6 0.00 0.00 0.00 82 1015.3
20260508113828 62 360 1.7 2.6 0.00 0.00 0.00 81 1015.3
20260508113729 62 360 0.9 2.6 0.00 0.00 0.00 81 1015.4
20260508113629 62 360 0.9 2.6 0.00 0.00 0.00 82 1015.3
20260508113530 62 360 0.9 2.6 0.00 0.00 0.00 81 1015.4
20260508113429 62 360 0.0 2.6 0.00 0.00 0.00 81 1015.4
20260508113334 62 360 0.0 1.7 0.00 0.00 0.00 81 1015.5
20260508113235 62 360 0.0 1.7 0.00 0.00 0.00 81 1015.5
20260508113136 62 360 0.0 1.7 0.00 0.00 0.00 81 1015.5
20260508113036 62 360 0.9 1.7 0.00 0.00 0.00 81 1015.5
20260508112936 62 360 0.9 1.7 0.00 0.00 0.00 81 1015.5
20260508112817 62 360 0.9 1.7 0.00 0.00 0.00 81 1015.4
20260508112717 62 360 0.0 1.7 0.00 0.00 0.00 81 1015.4
20260508112621 62 360 0.0 1.7 0.00 0.00 0.00 81 1015.4
20260508112543 62 360 0.0 1.7 0.00 0.00 0.00 81 1015.4
20260508112422 62 360 0.0 1.7 0.00 0.00 0.00 81 1015.5
20260508112323 62 360 0.0 1.7 0.00 0.00 0.00 81 1015.4
20260508112224 62 360 0.0 1.7 0.00 0.00 0.00 81 1015.4
20260508112124 62 360 0.0 1.7 0.00 0.00 0.00 81 1015.4
20260508112024 61 360 0.0 1.7 0.00 0.00 0.00 81 1015.4
20260508111929 61 360 0.0 2.6 0.00 0.00 0.00 81 1015.4
20260508111829 62 360 0.0 2.6 0.00 0.00 0.00 81 1015.4
20260508111750 62 360 0.0 2.6 0.00 0.00 0.00 81 1015.4
20260508111629 61 360 0.0 2.6 0.00 0.00 0.00 82 1015.3
20260508111529 61 360 0.0 2.6 0.00 0.00 0.00 82 1015.3
20260508111430 62 360 0.0 2.6 0.00 0.00 0.00 82 1015.4
20260508111330 61 360 0.0 2.6 0.00 0.00 0.00 82 1015.3
20260508111235 61 360 0.9 2.6 0.00 0.00 0.00 82 1015.3
20260508111135 61 360 0.9 2.6 0.00 0.00 0.00 82 1015.2
20260508111035 61 360 0.9 2.6 0.00 0.00 0.00 82 1015.2
20260508110955 61 360 0.9 2.6 0.00 0.00 0.00 82 1015.3
20260508110835 61 360 0.9 2.6 0.00 0.00 0.00 82 1015.2
20260508110737 61 360 0.9 2.6 0.00 0.00 0.00 82 1015.2
20260508110657 61 360 1.7 2.6 0.00 0.00 0.00 82 1015.3
20260508110521 61 360 0.9 2.6 0.00 0.00 0.00 82 1015.2
20260508110421 61 360 0.9 2.6 0.00 0.00 0.00 82 1015.3
20260508110321 61 360 0.9 2.6 0.00 0.00 0.00 82 1015.2
20260508110222 61 360 0.9 2.6 0.00 0.00 0.00 82 1015.2
20260508110122 61 360 0.0 2.6 0.00 0.00 0.00 82 1015.2
20260508110022 61 360 0.0 1.7 0.00 0.00 0.00 82 1015.3
20260508105923 61 360 0.0 0.9 0.00 0.00 0.00 82 1015.3
20260508105827 61 360 0.0 0.0 0.00 0.00 0.00 82 1015.3
20260508105728 61 360 0.0 0.9 0.00 0.00 0.00 82 1015.2
20260508105628 61 360 0.0 0.9 0.00 0.00 0.00 82 1015.2
20260508105549 61 360 0.0 0.9 0.00 0.00 0.00 82 1015.2
20260508105429 61 360 0.0 0.9 0.00 0.00 0.00 82 1015.2
20260508105329 61 360 0.0 0.9 0.00 0.00 0.00 82 1015.1
20260508105229 61 360 0.0 0.9 0.00 0.00 0.00 82 1015.1
20260508105134 61 360 0.0 0.9 0.00 0.00 0.00 82 1015.1
20260508105035 61 360 0.0 0.9 0.00 0.00 0.00 82 1015.1
20260508104956 61 360 0.0 1.7 0.00 0.00 0.00 82 1015.1
20260508104836 61 360 0.0 4.3 0.00 0.00 0.00 82 1015.0
20260508104756 61 360 0.0 4.3 0.00 0.00 0.00 82 1015.1
20260508104656 61 360 0.0 4.3 0.00 0.00 0.00 82 1015.0
20260508104556 61 340 0.0 4.3 0.00 0.00 0.00 82 1015.0
20260508104435 61 360 0.9 4.3 0.00 0.00 0.00 82 1015.0
20260508104319 61 360 0.9 4.3 0.00 0.00 0.00 82 1015.0
20260508104220 61 360 1.7 4.3 0.00 0.00 0.00 82 1015.0
20260508104121 61 360 1.7 4.3 0.00 0.00 0.00 82 1015.1
20260508104021 61 360 1.7 4.3 0.00 0.00 0.00 82 1015.0
20260508103922 61 360 1.7 4.3 0.00 0.00 0.00 82 1015.0
20260508103823 61 360 1.7 4.3 0.00 0.00 0.00 82 1015.0
20260508103722 61 360 1.7 4.3 0.00 0.00 0.00 82 1015.1
20260508103627 61 360 1.7 4.3 0.00 0.00 0.00 82 1015.1
20260508103527 61 360 2.6 4.3 0.00 0.00 0.00 82 1015.1
20260508103428 61 360 2.6 4.3 0.00 0.00 0.00 82 1015.2
20260508103329 61 28 1.7 5.2 0.00 0.00 0.00 82 1015.2
20260508103231 61 360 2.6 7.0 0.00 0.00 0.00 82 1015.3
20260508103132 61 360 2.6 7.0 0.00 0.00 0.00 82 1015.2
20260508103016 61 360 2.6 7.0 0.00 0.00 0.00 82 1015.3
20260508102918 61 360 2.6 7.0 0.00 0.00 0.00 82 1015.2
20260508102819 61 360 2.6 7.0 0.00 0.00 0.00 82 1015.2
20260508102719 61 360 3.5 7.0 0.00 0.00 0.00 82 1015.2
20260508102619 61 360 3.5 7.0 0.00 0.00 0.00 82 1015.3
20260508102519 61 360 3.5 7.0 0.00 0.00 0.00 82 1015.3
20260508102439 61 360 3.5 7.8 0.00 0.00 0.00 82 1015.2
20260508102323 61 360 3.5 7.8 0.00 0.00 0.00 82 1015.2
20260508102224 61 360 3.5 7.8 0.00 0.00 0.00 82 1015.2
20260508102144 61 360 3.5 7.8 0.00 0.00 0.00 82 1015.2
20260508102025 61 360 3.5 7.8 0.00 0.00 0.00 82 1015.1
20260508101925 61 360 3.5 7.8 0.00 0.00 0.00 82 1015.1
20260508101825 61 25 3.5 7.0 0.00 0.00 0.00 82 1015.1
20260508101726 61 39 3.5 7.0 0.00 0.00 0.00 82 1015.1
20260508101646 61 360 3.5 7.0 0.00 0.00 0.00 82 1015.1
20260508101549 61 360 3.5 7.0 0.00 0.00 0.00 82 1015.1
20260508101430 61 360 3.5 7.0 0.00 0.00 0.00 83 1015.1
20260508101330 61 360 3.5 7.0 0.00 0.00 0.00 83 1015.1
20260508101231 61 360 3.5 7.0 0.00 0.00 0.00 83 1015.2
20260508101130 61 360 3.5 7.0 0.00 0.00 0.00 83 1015.1
20260508101030 61 360 3.5 7.0 0.00 0.00 0.00 83 1015.1
20260508100931 61 360 3.5 7.0 0.00 0.00 0.00 83 1015.1
20260508100816 61 360 3.5 7.0 0.00 0.00 0.00 83 1015.0
20260508100717 61 360 3.5 7.0 0.00 0.00 0.00 83 1015.0
20260508100616 61 360 3.5 7.0 0.00 0.00 0.00 83 1014.9
20260508100516 61 360 2.6 7.0 0.00 0.00 0.00 83 1015.0
20260508100417 61 360 2.6 7.0 0.00 0.00 0.00 83 1015.2
20260508100317 61 360 2.6 7.0 0.00 0.00 0.00 83 1015.2
20260508100237 61 360 2.6 7.0 0.00 0.00 0.00 83 1015.3
20260508100117 61 360 2.6 7.0 0.00 0.00 0.00 83 1015.2
20260508100022 61 360 2.6 7.0 0.00 0.00 0.00 83 1015.3
20260508095921 61 360 2.6 7.0 0.00 0.00 0.00 84 1015.3
20260508095823 61 360 2.6 7.0 0.00 0.00 0.00 84 1015.4
20260508095723 61 360 2.6 7.0 0.00 0.00 0.00 84 1015.3
20260508095624 61 360 2.6 4.3 0.00 0.00 0.00 84 1015.4
20260508095525 61 360 2.6 4.3 0.00 0.00 0.00 84 1015.3
20260508095428 61 360 2.6 4.3 0.00 0.00 0.00 84 1015.3
20260508095329 61 360 2.6 4.3 0.00 0.00 0.00 84 1015.4
20260508095250 61 360 2.6 4.3 0.00 0.00 0.00 84 1015.2
20260508095130 61 360 2.6 3.5 0.00 0.00 0.00 84 1015.3
20260508095030 61 304 1.7 3.5 0.00 0.00 0.00 84 1015.2
20260508094930 61 360 1.7 3.5 0.00 0.00 0.00 84 1015.2
20260508094831 61 360 1.7 2.6 0.00 0.00 0.00 84 1015.3
20260508094716 61 360 0.9 2.6 0.00 0.00 0.00 84 1015.2
20260508094636 61 360 0.9 2.6 0.00 0.00 0.00 83 1015.2
20260508094516 61 360 1.7 2.6 0.00 0.00 0.00 83 1015.2
20260508094417 61 360 1.7 2.6 0.00 0.00 0.00 83 1015.2
20260508094316 61 360 1.7 2.6 0.00 0.00 0.00 83 1015.1
20260508094218 61 360 0.9 2.6 0.00 0.00 0.00 83 1015.1
20260508094117 61 360 1.7 2.6 0.00 0.00 0.00 83 1015.2
20260508094021 61 360 1.7 2.6 0.00 0.00 0.00 83 1015.3
20260508093922 61 360 0.9 2.6 0.00 0.00 0.00 83 1015.1
20260508093843 61 360 0.9 2.6 0.00 0.00 0.00 83 1015.2
20260508093721 61 360 0.9 2.6 0.00 0.00 0.00 83 1015.3
20260508093621 61 360 1.7 2.6 0.00 0.00 0.00 83 1015.3
20260508093542 61 360 1.7 2.6 0.00 0.00 0.00 83 1015.2
20260508093422 61 360 1.7 2.6 0.00 0.00 0.00 83 1015.4
20260508093342 61 360 1.7 2.6 0.00 0.00 0.00 83 1015.3
20260508093242 61 360 1.7 2.6 0.00 0.00 0.00 82 1015.4
20260508093125 61 302 1.7 2.6 0.00 0.00 0.00 82 1015.4
20260508093026 62 360 1.7 3.5 0.00 0.00 0.00 82 1015.4
20260508092946 62 360 1.7 3.5 0.00 0.00 0.00 82 1015.5
20260508092826 62 360 1.7 3.5 0.00 0.00 0.00 82 1015.5
20260508092725 62 360 1.7 3.5 0.00 0.00 0.00 82 1015.5
20260508092626 62 302 1.7 3.5 0.00 0.00 0.00 82 1015.5
20260508092527 62 360 1.7 3.5 0.00 0.00 0.00 82 1015.6
20260508092432 62 360 1.7 3.5 0.00 0.00 0.00 82 1015.6
20260508092353 62 360 1.7 3.5 0.00 0.00 0.00 82 1015.5
20260508092253 62 360 1.7 3.5 0.00 0.00 0.00 82 1015.4
20260508092132 62 360 1.7 3.5 0.00 0.00 0.00 82 1015.5
20260508092033 62 360 1.7 2.6 0.00 0.00 0.00 82 1015.5
20260508091933 62 360 1.7 2.6 0.00 0.00 0.00 82 1015.5
20260508091835 62 301 1.7 2.6 0.00 0.00 0.00 82 1015.5
20260508091719 62 360 1.7 2.6 0.00 0.00 0.00 82 1015.5
20260508091620 62 360 1.7 2.6 0.00 0.00 0.00 82 1015.4
20260508091521 62 360 1.7 2.6 0.00 0.00 0.00 82 1015.4
20260508091441 62 360 1.7 2.6 0.00 0.00 0.00 81 1015.4
20260508091341 62 360 1.7 2.6 0.00 0.00 0.00 81 1015.4
20260508091220 62 360 1.7 2.6 0.00 0.00 0.00 81 1015.4
20260508091120 62 360 1.7 2.6 0.00 0.00 0.00 81 1015.3
20260508091022 62 360 1.7 2.6 0.00 0.00 0.00 81 1015.4
20260508090925 62 360 1.7 2.6 0.00 0.00 0.00 81 1015.3
20260508090826 62 360 1.7 2.6 0.00 0.00 0.00 80 1015.3
20260508090725 62 360 1.7 2.6 0.00 0.00 0.00 80 1015.2
20260508090627 62 360 1.7 2.6 0.00 0.00 0.00 80 1015.3
20260508090527 62 360 0.9 2.6 0.00 0.00 0.00 80 1015.4
20260508090428 62 360 0.9 2.6 0.00 0.00 0.00 80 1015.2
20260508090332 62 360 0.9 2.6 0.00 0.00 0.00 80 1015.3
20260508090233 62 360 0.9 1.7 0.00 0.00 0.00 80 1015.2
20260508090133 62 46 0.9 1.7 0.00 0.00 0.00 80 1015.2
20260508090032 62 46 0.9 1.7 0.00 0.00 0.00 80 1015.0
20260508085952 62 44 0.9 1.7 0.00 0.00 0.00 80 1015.0
20260508085832 62 360 0.0 1.7 0.00 0.00 0.00 79 1015.0
20260508085733 62 44 0.0 1.7 0.00 0.00 0.00 79 1015.0
20260508085618 62 45 0.0 1.7 0.00 0.00 0.00 79 1015.0
20260508085518 62 47 0.0 1.7 0.00 0.00 0.00 79 1014.9
20260508085419 62 47 0.9 1.7 0.00 0.00 0.00 79 1015.0
20260508085320 62 360 0.9 1.7 0.00 0.00 0.00 79 1014.9
20260508085220 62 360 0.9 1.7 0.00 0.00 0.00 79 1014.9
20260508085120 62 45 0.9 1.7 0.00 0.00 0.00 79 1014.9
20260508085021 62 44 0.9 1.7 0.00 0.00 0.00 79 1015.0
20260508084926 62 46 0.0 1.7 0.00 0.00 0.00 79 1015.0
20260508084846 62 360 0.0 1.7 0.00 0.00 0.00 79 1014.9
20260508084726 62 360 0.0 0.0 0.00 0.00 0.00 79 1014.9
20260508084625 62 360 0.0 0.0 0.00 0.00 0.00 79 1015.0
20260508084526 62 360 0.0 0.0 0.00 0.00 0.00 79 1015.0
20260508084427 62 360 0.0 0.0 0.00 0.00 0.00 79 1015.0
20260508084328 62 360 0.0 0.0 0.00 0.00 0.00 79 1015.0
20260508084232 62 360 0.0 0.0 0.00 0.00 0.00 78 1015.0
20260508084133 62 46 0.0 0.0 0.00 0.00 0.00 78 1015.1
20260508084033 62 46 0.0 0.0 0.00 0.00 0.00 78 1015.0
20260508083933 62 46 0.0 0.0 0.00 0.00 0.00 78 1015.2
20260508083835 62 46 0.0 0.0 0.00 0.00 0.00 78 1015.2
20260508083735 62 46 0.0 0.0 0.00 0.00 0.00 78 1015.2
20260508083620 62 46 0.0 0.0 0.00 0.00 0.00 78 1015.2
20260508083520 62 46 0.0 0.0 0.00 0.00 0.00 78 1015.1
20260508083441 62 46 0.0 1.7 0.00 0.00 0.00 78 1015.1
20260508083320 62 46 0.0 1.7 0.00 0.00 0.00 78 1015.1
20260508083221 62 46 0.0 1.7 0.00 0.00 0.00 78 1015.1
20260508083122 62 48 0.0 1.7 0.00 0.00 0.00 78 1015.0
20260508083024 62 48 0.0 1.7 0.00 0.00 0.00 78 1015.0
20260508082928 62 47 0.0 1.7 0.00 0.00 0.00 79 1015.0
20260508082830 62 48 0.0 1.7 0.00 0.00 0.00 79 1015.1
20260508082732 62 360 0.0 1.7 0.00 0.00 0.00 79 1015.0
20260508082632 62 360 0.0 1.7 0.00 0.00 0.00 79 1015.1
20260508082533 62 360 0.0 1.7 0.00 0.00 0.00 79 1015.1
20260508082433 62 360 0.0 1.7 0.00 0.00 0.00 79 1015.1
20260508082318 62 360 0.0 1.7 0.00 0.00 0.00 79 1015.2
20260508082217 62 360 0.9 1.7 0.00 0.00 0.00 78 1015.2
20260508082118 62 360 0.9 1.7 0.00 0.00 0.00 79 1015.3
20260508082039 62 44 0.9 1.7 0.00 0.00 0.00 79 1015.3
20260508081919 62 46 0.9 1.7 0.00 0.00 0.00 79 1015.4
20260508081840 62 48 0.9 1.7 0.00 0.00 0.00 79 1015.4
20260508081718 62 47 0.9 1.7 0.00 0.00 0.00 79 1015.4
20260508081620 62 360 0.9 1.7 0.00 0.00 0.00 79 1015.5
20260508081524 62 360 0.9 1.7 0.00 0.00 0.00 79 1015.3
20260508081425 62 45 0.9 1.7 0.00 0.00 0.00 79 1015.4
20260508081325 62 360 0.9 1.7 0.00 0.00 0.00 79 1015.4
20260508081226 62 360 0.9 1.7 0.00 0.00 0.00 79 1015.4
20260508081126 62 44 0.9 1.7 0.00 0.00 0.00 79 1015.4
20260508081027 62 360 0.9 1.7 0.00 0.00 0.00 79 1015.3
20260508080932 62 360 0.9 1.7 0.00 0.00 0.00 79 1015.4
20260508080832 62 44 0.9 1.7 0.00 0.00 0.00 79 1015.3
20260508080734 62 46 0.9 1.7 0.00 0.00 0.00 79 1015.3
20260508080634 62 360 0.9 1.7 0.00 0.00 0.00 79 1015.3
20260508080534 62 44 0.9 1.7 0.00 0.00 0.00 79 1015.3
20260508080454 62 46 0.9 1.7 0.00 0.00 0.00 79 1015.3
20260508080335 62 360 0.9 1.7 0.00 0.00 0.00 79 1015.3
20260508080234 62 360 0.0 1.7 0.00 0.00 0.00 78 1015.3
20260508080118 62 49 0.0 0.9 0.00 0.00 0.00 78 1015.4
20260508080040 62 360 0.0 0.9 0.00 0.00 0.00 78 1015.5
20260508075918 62 360 0.0 0.9 0.00 0.00 0.00 78 1015.6
20260508075820 62 360 0.0 0.9 0.00 0.00 0.00 78 1015.5
20260508075740 62 360 0.0 0.9 0.00 0.00 0.00 78 1015.5
20260508075620 62 49 0.0 0.9 0.00 0.00 0.00 78 1015.3
20260508075521 62 360 0.0 0.9 0.00 0.00 0.00 78 1015.3
20260508075425 62 48 0.0 0.9 0.00 0.00 0.00 78 1015.2
20260508075325 62 48 0.0 0.9 0.00 0.00 0.00 78 1015.2
20260508075245 62 48 0.0 0.9 0.00 0.00 0.00 78 1015.1
20260508075125 62 48 0.0 0.9 0.00 0.00 0.00 78 1015.2
20260508075025 62 48 0.0 0.9 0.00 0.00 0.00 78 1015.1
20260508074926 62 48 0.0 1.7 0.00 0.00 0.00 78 1015.1
20260508074847 62 360 0.0 1.7 0.00 0.00 0.00 78 1015.1
20260508074725 62 360 0.0 1.7 0.00 0.00 0.00 78 1015.1
20260508074631 62 360 0.0 1.7 0.00 0.00 0.00 78 1015.1
20260508074550 62 360 0.0 1.7 0.00 0.00 0.00 78 1015.1
20260508074427 62 360 0.0 1.7 0.00 0.00 0.00 78 1015.2
20260508074328 62 360 0.0 1.7 0.00 0.00 0.00 78 1015.2
20260508074230 62 360 0.0 1.7 0.00 0.00 0.00 78 1015.2
20260508074129 62 360 0.0 1.7 0.00 0.00 0.00 78 1015.2
20260508074030 62 360 0.0 1.7 0.00 0.00 0.00 78 1015.2
20260508073915 62 360 0.0 1.7 0.00 0.00 0.00 78 1015.3
20260508073817 62 360 0.9 1.7 0.00 0.00 0.00 78 1015.3
20260508073717 62 360 0.9 1.7 0.00 0.00 0.00 78 1015.3
20260508073617 62 48 0.9 1.7 0.00 0.00 0.00 78 1015.3
20260508073519 62 360 0.9 1.7 0.00 0.00 0.00 79 1015.3
20260508073420 62 360 0.0 1.7 0.00 0.00 0.00 79 1015.3
20260508073322 62 360 0.0 1.7 0.00 0.00 0.00 79 1015.3
20260508073228 62 360 0.0 1.7 0.00 0.00 0.00 79 1015.3
20260508073127 62 360 0.0 1.7 0.00 0.00 0.00 79 1015.3
20260508073027 62 360 0.0 4.3 0.00 0.00 0.00 79 1015.2
20260508072927 62 360 0.0 4.3 0.00 0.00 0.00 79 1015.2
20260508072828 61 360 0.0 4.3 0.00 0.00 0.00 79 1015.2
20260508072749 61 360 0.0 4.3 0.00 0.00 0.00 79 1015.2
20260508072628 61 360 0.9 4.3 0.00 0.00 0.00 79 1015.3
20260508072531 61 360 0.9 4.3 0.00 0.00 0.00 79 1015.3
20260508072452 61 360 0.9 4.3 0.00 0.00 0.00 79 1015.2
20260508072353 61 360 1.7 4.3 0.00 0.00 0.00 79 1015.2
20260508072232 61 360 1.7 4.3 0.00 0.00 0.00 79 1015.3
20260508072134 61 360 1.7 4.3 0.00 0.00 0.00 79 1015.3
20260508072035 61 360 1.7 4.3 0.00 0.00 0.00 79 1015.3
20260508071935 61 360 1.7 4.3 0.00 0.00 0.00 79 1015.2
20260508071816 61 360 1.7 4.3 0.00 0.00 0.00 79 1015.1
20260508071721 61 360 1.7 4.3 0.00 0.00 0.00 79 1015.1
20260508071622 61 360 1.7 3.5 0.00 0.00 0.00 79 1015.0
20260508071523 61 360 0.9 2.6 0.00 0.00 0.00 79 1015.1
20260508071424 61 360 0.9 2.6 0.00 0.00 0.00 79 1015.1
20260508071325 61 49 0.9 1.7 0.00 0.00 0.00 79 1015.1
20260508071244 61 360 0.9 1.7 0.00 0.00 0.00 79 1015.2
20260508071125 61 360 0.9 1.7 0.00 0.00 0.00 79 1015.2
20260508071030 61 49 0.9 2.6 0.00 0.00 0.00 79 1015.2
20260508070930 61 360 0.0 2.6 0.00 0.00 0.00 79 1015.2
20260508070830 61 360 0.0 2.6 0.00 0.00 0.00 79 1015.3
20260508070731 61 360 0.0 2.6 0.00 0.00 0.00 79 1015.4
20260508070630 61 360 0.9 2.6 0.00 0.00 0.00 79 1015.2
20260508070551 61 360 0.9 2.6 0.00 0.00 0.00 79 1015.3
20260508070431 61 360 0.9 2.6 0.00 0.00 0.00 79 1015.3
20260508070316 61 360 1.7 2.6 0.00 0.00 0.00 79 1015.2
20260508070216 61 360 1.7 2.6 0.00 0.00 0.00 79 1015.1
20260508070138 61 44 1.7 2.6 0.00 0.00 0.00 79 1015.2
20260508070016 61 360 1.7 2.6 0.00 0.00 0.00 79 1015.2
20260508065917 61 45 1.7 2.6 0.00 0.00 0.00 79 1015.2
20260508065819 61 360 1.7 2.6 0.00 0.00 0.00 79 1015.3
20260508065720 61 45 1.7 2.6 0.00 0.00 0.00 79 1015.3
20260508065645 61 360 1.7 2.6 0.00 0.00 0.00 79 1015.2
20260508065523 61 360 1.7 2.6 0.00 0.00 0.00 79 1015.2
20260508065424 61 360 1.7 2.6 0.00 0.00 0.00 79 1015.3
20260508065345 61 360 0.9 2.6 0.00 0.00 0.00 79 1015.3
20260508065224 61 360 0.9 2.6 0.00 0.00 0.00 79 1015.3
20260508065125 61 360 0.9 2.6 0.00 0.00 0.00 79 1015.4
20260508065045 61 360 0.9 2.6 0.00 0.00 0.00 79 1015.4
20260508064925 61 360 0.0 2.6 0.00 0.00 0.00 79 1015.4
20260508064823 61 360 0.0 1.7 0.00 0.00 0.00 79 1015.5
20260508064728 61 360 0.0 0.0 0.00 0.00 0.00 79 1015.5
20260508064629 61 360 0.0 1.7 0.00 0.00 0.00 79 1015.6
20260508064529 61 360 0.0 1.7 0.00 0.00 0.00 79 1015.6
20260508064429 61 342 0.0 1.7 0.00 0.00 0.00 79 1015.7
20260508064329 61 342 0.0 1.7 0.00 0.00 0.00 79 1015.8
20260508064230 61 360 0.0 1.7 0.00 0.00 0.00 79 1015.7
20260508064134 61 360 0.0 1.7 0.00 0.00 0.00 79 1015.8
20260508064034 61 360 0.0 1.7 0.00 0.00 0.00 79 1015.8
20260508063934 61 360 0.0 1.7 0.00 0.00 0.00 79 1015.8
20260508063835 61 360 0.0 1.7 0.00 0.00 0.00 79 1015.8
20260508063735 61 360 0.0 1.7 0.00 0.00 0.00 79 1015.7
20260508063635 61 360 0.9 1.7 0.00 0.00 0.00 79 1015.7
20260508063555 61 360 0.9 1.7 0.00 0.00 0.00 79 1015.7
20260508063419 61 342 0.9 1.7 0.00 0.00 0.00 79 1015.8
20260508063319 61 360 0.9 2.6 0.00 0.00 0.00 79 1015.8
20260508063219 61 360 0.9 2.6 0.00 0.00 0.00 79 1015.9
20260508063120 61 360 0.9 2.6 0.00 0.00 0.00 78 1015.9
20260508063021 61 360 0.9 2.6 0.00 0.00 0.00 79 1016.0
20260508062920 61 340 0.9 2.6 0.00 0.00 0.00 79 1016.1
20260508062821 61 360 0.9 2.6 0.00 0.00 0.00 79 1016.2
20260508062727 61 360 0.9 2.6 0.00 0.00 0.00 79 1016.2
20260508062626 61 360 0.9 2.6 0.00 0.00 0.00 79 1016.2
20260508062526 61 360 0.9 2.6 0.00 0.00 0.00 79 1016.2
20260508062427 61 360 0.9 2.6 0.00 0.00 0.00 79 1016.3
20260508062348 61 360 0.0 2.6 0.00 0.00 0.00 79 1016.2
20260508062227 61 360 0.0 0.9 0.00 0.00 0.00 78 1016.2
20260508062127 61 360 0.0 0.9 0.00 0.00 0.00 79 1016.2
20260508062031 61 360 0.0 0.9 0.00 0.00 0.00 79 1016.2
20260508061951 61 360 0.0 0.9 0.00 0.00 0.00 79 1016.1
20260508061831 61 342 0.0 0.9 0.00 0.00 0.00 79 1016.1
20260508061751 61 342 0.0 0.9 0.00 0.00 0.00 79 1016.1
20260508061631 61 360 0.0 0.0 0.00 0.00 0.00 79 1016.2
20260508061530 61 360 0.0 0.0 0.00 0.00 0.00 79 1016.1
20260508061429 61 360 0.0 0.0 0.00 0.00 0.00 79 1016.1
20260508061349 61 360 0.0 0.0 0.00 0.00 0.00 79 1016.0
20260508061248 61 360 0.0 0.0 0.00 0.00 0.00 79 1016.1
20260508061133 61 360 0.0 0.0 0.00 0.00 0.00 79 1016.1
20260508061053 61 360 0.0 0.9 0.00 0.00 0.00 79 1016.1
20260508060952 61 360 0.0 1.7 0.00 0.00 0.00 79 1016.0
20260508060831 61 360 0.0 1.7 0.00 0.00 0.00 79 1016.0
20260508060732 61 360 0.0 1.7 0.00 0.00 0.00 79 1016.0
20260508060633 61 360 0.0 1.7 0.00 0.00 0.00 79 1015.9
20260508060533 61 360 0.0 1.7 0.00 0.00 0.00 79 1016.0
20260508060417 61 360 0.9 1.7 0.00 0.00 0.00 79 1016.1
20260508060338 61 360 0.9 1.7 0.00 0.00 0.00 79 1016.0
20260508060217 61 360 0.9 1.7 0.00 0.00 0.00 79 1016.0
20260508060119 61 360 0.0 1.7 0.00 0.00 0.00 79 1016.1
20260508060039 61 360 0.0 1.7 0.00 0.00 0.00 79 1016.1
20260508055917 61 360 0.0 1.7 0.00 0.00 0.00 79 1016.0
20260508055819 61 360 0.0 1.7 0.00 0.00 0.00 78 1016.0
20260508055718 61 360 0.0 2.6 0.00 0.00 0.00 78 1015.8
20260508055622 61 360 0.0 2.6 0.00 0.00 0.00 78 1015.8
20260508055523 61 360 0.0 2.6 0.00 0.00 0.00 78 1015.8
20260508055424 61 360 0.9 2.6 0.00 0.00 0.00 79 1015.7
20260508055324 61 360 0.9 2.6 0.00 0.00 0.00 79 1015.8
20260508055245 61 360 0.9 2.6 0.00 0.00 0.00 79 1015.8
20260508055125 61 360 0.9 2.6 0.00 0.00 0.00 79 1015.8
20260508055025 61 360 1.7 2.6 0.00 0.00 0.00 79 1015.9
20260508054950 61 360 0.9 2.6 0.00 0.00 0.00 79 1015.9
20260508054828 61 360 0.9 1.7 0.00 0.00 0.00 79 1015.9
20260508054749 61 360 0.9 1.7 0.00 0.00 0.00 79 1015.9
20260508054628 61 360 0.0 1.7 0.00 0.00 0.00 79 1015.9
20260508054527 61 360 0.0 0.9 0.00 0.00 0.00 78 1015.9
20260508054428 61 360 0.0 0.9 0.00 0.00 0.00 79 1015.9
20260508054329 61 360 0.0 0.9 0.00 0.00 0.00 79 1015.9
20260508054230 61 360 0.0 1.7 0.00 0.00 0.00 79 1016.0
20260508054134 61 360 0.0 2.6 0.00 0.00 0.00 79 1016.0
20260508054034 61 360 0.0 2.6 0.00 0.00 0.00 79 1016.0
20260508053934 61 360 0.0 2.6 0.00 0.00 0.00 79 1016.1
20260508053855 61 360 0.9 1.7 0.00 0.00 0.00 79 1016.2
20260508053755 61 360 0.9 1.7 0.00 0.00 0.00 79 1016.3
20260508053634 61 360 0.9 1.7 0.00 0.00 0.00 79 1016.3
20260508053534 61 360 0.9 1.7 0.00 0.00 0.00 79 1016.3
20260508053419 61 360 0.9 1.7 0.00 0.00 0.00 79 1016.2
20260508053319 61 360 0.9 1.7 0.00 0.00 0.00 79 1016.3
20260508053220 61 360 0.9 1.7 0.00 0.00 0.00 79 1016.3
20260508053120 61 360 0.9 1.7 0.00 0.00 0.00 79 1016.3
20260508053021 61 360 0.9 1.7 0.00 0.00 0.00 79 1016.4
20260508052922 61 360 0.9 1.7 0.00 0.00 0.00 79 1016.2
20260508052823 61 360 0.0 1.7 0.00 0.00 0.00 79 1016.2
20260508052729 61 360 0.0 1.7 0.00 0.00 0.00 79 1016.2
20260508052628 61 360 0.0 2.6 0.00 0.00 0.00 79 1016.1
20260508052529 61 360 0.0 2.6 0.00 0.00 0.00 79 1016.1
20260508052448 61 360 0.0 2.6 0.00 0.00 0.00 79 1016.1
20260508052328 61 360 0.0 2.6 0.00 0.00 0.00 79 1016.1
20260508052228 61 360 0.0 2.6 0.00 0.00 0.00 79 1016.1
20260508052127 61 360 0.9 2.6 0.00 0.00 0.00 79 1016.0
20260508052031 61 360 0.9 2.6 0.00 0.00 0.00 79 1016.0
20260508051932 61 360 0.9 2.6 0.00 0.00 0.00 79 1016.0
20260508051831 61 360 0.9 2.6 0.00 0.00 0.00 79 1016.1
20260508051731 61 360 1.7 2.6 0.00 0.00 0.00 79 1016.0
20260508051651 61 360 1.7 2.6 0.00 0.00 0.00 78 1016.1
20260508051531 61 360 1.7 2.6 0.00 0.00 0.00 79 1016.0
20260508051431 61 360 1.7 2.6 0.00 0.00 0.00 79 1016.1
20260508051316 61 360 1.7 3.5 0.00 0.00 0.00 79 1016.1
20260508051217 61 360 1.7 3.5 0.00 0.00 0.00 79 1016.0
20260508051117 61 360 1.7 3.5 0.00 0.00 0.00 79 1016.0
20260508051018 61 344 1.7 3.5 0.00 0.00 0.00 79 1015.9
20260508050919 61 360 0.9 3.5 0.00 0.00 0.00 79 1015.9
20260508050820 61 360 1.7 3.5 0.00 0.00 0.00 78 1015.8
20260508050719 61 360 1.7 3.5 0.00 0.00 0.00 78 1015.8
20260508050624 61 360 1.7 3.5 0.00 0.00 0.00 78 1015.9
20260508050524 61 360 1.7 3.5 0.00 0.00 0.00 79 1015.7
20260508050425 61 360 1.7 3.5 0.00 0.00 0.00 79 1015.7
20260508050325 61 360 1.7 3.5 0.00 0.00 0.00 78 1015.8
20260508050226 61 360 1.7 3.5 0.00 0.00 0.00 79 1015.8
20260508050126 61 360 1.7 3.5 0.00 0.00 0.00 78 1015.8
20260508050031 61 360 1.7 4.3 0.00 0.00 0.00 78 1015.8
20260508045926 61 360 1.7 4.3 0.00 0.00 0.00 78 1015.8
20260508045827 61 360 1.7 5.2 0.00 0.00 0.00 78 1015.9
20260508045727 61 360 2.6 5.2 0.00 0.00 0.00 78 1015.9
20260508045627 61 360 2.6 5.2 0.00 0.00 0.00 78 1015.9
20260508045528 61 360 2.6 5.2 0.00 0.00 0.00 78 1015.9
20260508045429 61 360 2.6 5.2 0.00 0.00 0.00 78 1016.1
20260508045333 61 360 2.6 5.2 0.00 0.00 0.00 78 1016.0
20260508045233 61 360 2.6 5.2 0.00 0.00 0.00 78 1016.1
20260508045134 61 360 2.6 5.2 0.00 0.00 0.00 78 1016.2
20260508045035 61 360 2.6 5.2 0.00 0.00 0.00 78 1016.2
20260508044935 61 360 2.6 5.2 0.00 0.00 0.00 78 1016.2
20260508044835 61 360 1.7 5.2 0.00 0.00 0.00 78 1016.2
20260508044721 61 360 1.7 7.0 0.00 0.00 0.00 78 1016.4
20260508044641 61 360 1.7 7.8 0.00 0.00 0.00 78 1016.6
20260508044519 61 360 1.7 7.8 0.00 0.00 0.00 78 1016.6
20260508044440 61 360 2.6 8.7 0.00 0.00 0.00 78 1016.7
20260508044340 61 299 3.5 8.7 0.00 0.00 0.00 78 1016.7
20260508044220 61 360 3.5 8.7 0.00 0.00 0.00 78 1016.8
20260508044120 61 360 4.3 8.7 0.00 0.00 0.00 78 1016.8
20260508044021 61 360 5.2 8.7 0.00 0.00 0.00 78 1016.9
20260508043942 61 360 5.2 8.7 0.00 0.00 0.00 77 1017.0
20260508043825 61 360 5.2 8.7 0.00 0.00 0.00 77 1016.9
20260508043726 61 360 5.2 8.7 0.00 0.00 0.00 77 1016.8
20260508043627 61 360 4.3 8.7 0.00 0.00 0.00 77 1016.8
20260508043548 61 360 3.5 5.2 0.00 0.00 0.00 77 1016.3
20260508043447 61 360 2.6 4.3 0.00 0.00 0.00 77 1015.8
20260508043326 61 17 1.7 4.3 0.00 0.00 0.00 77 1015.5
20260508043227 61 360 1.7 4.3 0.00 0.00 0.00 77 1015.5
20260508043132 61 360 2.6 4.3 0.00 0.00 0.00 77 1015.4
20260508043033 61 360 2.6 4.3 0.00 0.00 0.00 77 1015.3
20260508042933 61 360 2.6 4.3 0.00 0.00 0.00 77 1015.3
20260508042833 61 360 2.6 4.3 0.00 0.00 0.00 77 1015.3
20260508042736 61 360 2.6 4.3 0.00 0.00 0.00 77 1015.3
20260508042635 61 360 2.6 4.3 0.00 0.00 0.00 77 1015.4
20260508042520 61 360 2.6 4.3 0.00 0.00 0.00 77 1015.5
20260508042421 61 360 2.6 3.5 0.00 0.00 0.00 77 1015.5
20260508042321 61 360 2.6 3.5 0.00 0.00 0.00 77 1015.6
20260508042221 61 360 2.6 3.5 0.00 0.00 0.00 77 1015.7
20260508042123 61 360 2.6 3.5 0.00 0.00 0.00 77 1015.9
20260508042024 61 360 1.7 3.5 0.00 0.00 0.00 77 1015.9
20260508041924 61 360 1.7 3.5 0.00 0.00 0.00 77 1016.0
20260508041829 61 42 1.7 3.5 0.00 0.00 0.00 77 1016.0
20260508041729 61 52 1.7 3.5 0.00 0.00 0.00 77 1016.0
20260508041629 61 360 1.7 3.5 0.00 0.00 0.00 77 1015.8
20260508041529 61 360 1.7 3.5 0.00 0.00 0.00 77 1015.9
20260508041449 61 360 1.7 3.5 0.00 0.00 0.00 77 1015.8
20260508041329 61 360 1.7 3.5 0.00 0.00 0.00 77 1015.7
20260508041229 61 360 1.7 3.5 0.00 0.00 0.00 77 1015.8
20260508041150 61 360 1.7 3.5 0.00 0.00 0.00 77 1015.9
20260508041033 61 360 1.7 3.5 0.00 0.00 0.00 77 1015.9
20260508040934 61 360 1.7 3.5 0.00 0.00 0.00 77 1016.0
20260508040833 61 360 0.9 3.5 0.00 0.00 0.00 77 1016.0
20260508040734 61 360 0.9 3.5 0.00 0.00 0.00 77 1016.1
20260508040635 61 360 0.9 3.5 0.00 0.00 0.00 77 1016.0
20260508040555 61 360 0.9 3.5 0.00 0.00 0.00 77 1016.1
20260508040419 61 360 0.0 3.5 0.00 0.00 0.00 77 1016.0
20260508040319 61 360 0.0 3.5 0.00 0.00 0.00 77 1016.1
20260508040219 62 360 0.9 3.5 0.00 0.00 0.00 77 1016.2
20260508040120 62 360 0.9 3.5 0.00 0.00 0.00 77 1016.2
20260508040021 62 360 0.9 3.5 0.00 0.00 0.00 77 1016.4
20260508035922 62 360 1.7 3.5 0.00 0.00 0.00 77 1016.3
20260508035824 62 360 1.7 3.5 0.00 0.00 0.00 77 1016.4
20260508035748 62 360 1.7 3.5 0.00 0.00 0.00 77 1016.4
20260508035626 62 360 1.7 3.5 0.00 0.00 0.00 76 1016.4
20260508035527 62 360 1.7 2.6 0.00 0.00 0.00 76 1016.4
20260508035428 62 360 1.7 2.6 0.00 0.00 0.00 76 1016.4
20260508035328 62 360 1.7 2.6 0.00 0.00 0.00 76 1016.4
20260508035249 62 360 1.7 2.6 0.00 0.00 0.00 76 1016.4
20260508035129 62 360 1.7 2.6 0.00 0.00 0.00 76 1016.4
20260508035033 62 360 1.7 2.6 0.00 0.00 0.00 76 1016.5
20260508034934 62 360 1.7 2.6 0.00 0.00 0.00 76 1016.6
20260508034836 62 360 1.7 2.6 0.00 0.00 0.00 76 1016.6
20260508034716 62 360 1.7 2.6 0.00 0.00 0.00 76 1016.6
20260508034617 62 360 1.7 2.6 0.00 0.00 0.00 76 1016.6
20260508034518 62 360 1.7 2.6 0.00 0.00 0.00 76 1016.5
20260508034422 62 360 1.7 2.6 0.00 0.00 0.00 76 1016.4
20260508034343 62 360 1.7 2.6 0.00 0.00 0.00 76 1016.5
20260508034221 62 360 1.7 2.6 0.00 0.00 0.00 76 1016.4
20260508034122 62 360 1.7 2.6 0.00 0.00 0.00 76 1016.4
20260508034023 62 360 1.7 2.6 0.00 0.00 0.00 75 1016.5
20260508033924 62 360 0.9 2.6 0.00 0.00 0.00 75 1016.5
20260508033824 62 360 0.9 2.6 0.00 0.00 0.00 75 1016.5
20260508033729 62 360 0.9 2.6 0.00 0.00 0.00 75 1016.5
20260508033649 62 360 0.9 2.6 0.00 0.00 0.00 75 1016.6
20260508033528 62 360 0.9 3.5 0.00 0.00 0.00 75 1016.7
20260508033449 62 360 0.9 3.5 0.00 0.00 0.00 75 1016.7
20260508033328 62 360 0.9 3.5 0.00 0.00 0.00 75 1016.7
20260508033229 62 360 0.9 3.5 0.00 0.00 0.00 75 1016.8
20260508033130 62 360 1.7 3.5 0.00 0.00 0.00 75 1016.9
20260508033030 62 292 1.7 3.5 0.00 0.00 0.00 75 1017.0
20260508032935 62 360 1.7 3.5 0.00 0.00 0.00 75 1017.1
20260508032834 62 360 2.6 3.5 0.00 0.00 0.00 74 1017.1
20260508032736 62 360 2.6 3.5 0.00 0.00 0.00 74 1017.2
20260508032617 63 360 1.7 3.5 0.00 0.00 0.00 74 1017.2
20260508032518 63 360 1.7 3.5 0.00 0.00 0.00 74 1017.2
20260508032419 63 292 1.7 3.5 0.00 0.00 0.00 74 1017.3
20260508032344 63 360 1.7 3.5 0.00 0.00 0.00 74 1017.2
20260508032243 63 360 1.7 3.5 0.00 0.00 0.00 74 1017.2
20260508032123 63 360 1.7 3.5 0.00 0.00 0.00 74 1017.2
20260508032023 63 360 2.6 3.5 0.00 0.00 0.00 74 1017.2
20260508031924 63 360 1.7 3.5 0.00 0.00 0.00 74 1017.1
20260508031824 63 360 1.7 3.5 0.00 0.00 0.00 74 1017.1
20260508031724 63 360 1.7 2.6 0.00 0.00 0.00 73 1017.0
20260508031629 63 360 1.7 3.5 0.00 0.00 0.00 73 1017.0
20260508031529 63 360 1.7 3.5 0.00 0.00 0.00 73 1017.0
20260508031452 63 360 1.7 3.5 0.00 0.00 0.00 73 1017.0
20260508031331 63 360 1.7 3.5 0.00 0.00 0.00 73 1016.9
20260508031232 63 360 1.7 3.5 0.00 0.00 0.00 73 1017.0
20260508031152 63 360 1.7 3.5 0.00 0.00 0.00 73 1017.0
20260508031033 63 360 1.7 3.5 0.00 0.00 0.00 73 1017.1
20260508030917 63 360 1.7 3.5 0.00 0.00 0.00 73 1017.1
20260508030838 63 360 1.7 3.5 0.00 0.00 0.00 73 1017.1
20260508030718 63 360 1.7 3.5 0.00 0.00 0.00 73 1017.1
20260508030618 63 360 1.7 3.5 0.00 0.00 0.00 73 1017.1
20260508030519 63 360 1.7 3.5 0.00 0.00 0.00 73 1017.1
20260508030440 63 360 1.7 3.5 0.00 0.00 0.00 73 1017.2
20260508030318 63 360 1.7 3.5 0.00 0.00 0.00 73 1017.2
20260508030219 63 360 2.6 3.5 0.00 0.00 0.00 73 1017.1
20260508030123 63 360 2.6 3.5 0.00 0.00 0.00 73 1017.1
20260508030024 63 360 1.7 3.5 0.00 0.00 0.00 73 1016.8
20260508025925 63 360 1.7 3.5 0.00 0.00 0.00 73 1016.7
20260508025847 63 360 0.9 3.5 0.00 0.00 0.00 72 1016.6
20260508025746 63 360 0.9 3.5 0.00 0.00 0.00 73 1016.6
20260508025644 63 360 0.0 1.7 0.00 0.00 0.00 73 1016.5
20260508025523 63 360 0.0 2.6 0.00 0.00 0.00 73 1016.5
20260508025425 63 360 0.0 2.6 0.00 0.00 0.00 73 1016.4
20260508025327 63 360 0.0 2.6 0.00 0.00 0.00 72 1016.4
20260508025228 63 360 0.0 2.6 0.00 0.00 0.00 73 1016.3
20260508025128 63 360 0.0 2.6 0.00 0.00 0.00 72 1016.1
20260508025028 63 360 0.0 2.6 0.00 0.00 0.00 72 1016.2
20260508024928 63 360 0.9 3.5 0.00 0.00 0.00 72 1016.2
20260508024829 63 360 0.9 3.5 0.00 0.00 0.00 72 1016.1
20260508024730 63 74 0.9 3.5 0.00 0.00 0.00 72 1016.1
20260508024654 63 74 1.7 3.5 0.00 0.00 0.00 72 1016.1
20260508024533 63 74 1.7 3.5 0.00 0.00 0.00 72 1016.1
20260508024454 63 360 1.7 3.5 0.00 0.00 0.00 72 1016.1
20260508024333 63 360 1.7 3.5 0.00 0.00 0.00 72 1016.0
20260508024234 63 360 1.7 3.5 0.00 0.00 0.00 72 1016.0
20260508024154 63 360 1.7 3.5 0.00 0.00 0.00 72 1015.9
20260508024034 63 71 1.7 3.5 0.00 0.00 0.00 72 1015.9
20260508023919 63 360 1.7 3.5 0.00 0.00 0.00 72 1015.9
20260508023840 63 360 1.7 3.5 0.00 0.00 0.00 72 1016.0
20260508023720 63 74 1.7 3.5 0.00 0.00 0.00 72 1016.1
20260508023620 63 360 1.7 3.5 0.00 0.00 0.00 72 1016.0
20260508023519 63 73 1.7 3.5 0.00 0.00 0.00 72 1016.0
20260508023420 63 360 1.7 3.5 0.00 0.00 0.00 72 1015.8
20260508023319 63 360 2.6 4.3 0.00 0.00 0.00 72 1015.8
20260508023220 63 360 2.6 4.3 0.00 0.00 0.00 72 1015.6
20260508023124 63 360 1.7 7.8 0.00 0.00 0.00 72 1015.6
20260508023024 63 360 1.7 7.8 0.00 0.00 0.00 72 1015.6
20260508022925 63 360 1.7 7.8 0.00 0.00 0.00 71 1015.6
20260508022826 63 360 1.7 7.8 0.00 0.00 0.00 71 1015.5
20260508022726 63 360 1.7 7.8 0.00 0.00 0.00 71 1015.4
20260508022625 63 360 2.6 7.8 0.00 0.00 0.00 71 1015.4
20260508022525 63 360 2.6 7.8 0.00 0.00 0.00 71 1015.2
20260508022428 63 360 2.6 7.8 0.00 0.00 0.00 71 1015.2
20260508022330 63 360 3.5 7.8 0.00 0.00 0.00 71 1015.2
20260508022250 63 360 3.5 7.8 0.00 0.00 0.00 71 1015.0
20260508022129 63 360 4.3 7.8 0.00 0.00 0.00 71 1014.8
20260508022050 63 360 4.3 7.8 0.00 0.00 0.00 71 1014.7
20260508021950 63 360 4.3 7.8 0.00 0.00 0.00 71 1014.7
20260508021829 63 360 4.3 7.8 0.00 0.00 0.00 71 1014.7
20260508021750 63 360 3.5 7.0 0.00 0.00 0.00 70 1014.6
20260508021628 63 360 3.5 7.0 0.00 0.00 0.00 70 1014.7
20260508021532 63 360 2.6 5.2 0.00 0.00 0.00 70 1014.7
20260508021431 64 360 2.6 5.2 0.00 0.00 0.00 70 1014.8
20260508021332 64 360 2.6 5.2 0.00 0.00 0.00 70 1014.7
20260508021232 64 360 2.6 5.2 0.00 0.00 0.00 70 1014.8
20260508021133 64 360 2.6 5.2 0.00 0.00 0.00 70 1014.7
20260508021034 64 360 2.6 5.2 0.00 0.00 0.00 70 1014.8
20260508020935 64 360 1.7 5.2 0.00 0.00 0.00 70 1014.8
20260508020819 64 360 1.7 4.3 0.00 0.00 0.00 70 1014.8
20260508020719 64 360 1.7 4.3 0.00 0.00 0.00 70 1014.8
20260508020619 64 360 1.7 3.5 0.00 0.00 0.00 70 1014.8
20260508020521 64 360 1.7 4.3 0.00 0.00 0.00 70 1014.9
20260508020420 64 360 1.7 4.3 0.00 0.00 0.00 70 1014.8
20260508020341 64 360 2.6 4.3 0.00 0.00 0.00 70 1014.8
20260508020220 64 360 2.6 4.3 0.00 0.00 0.00 70 1014.8
20260508020120 64 360 2.6 4.3 0.00 0.00 0.00 70 1014.8
20260508020025 64 360 2.6 4.3 0.00 0.00 0.00 70 1014.7
20260508015926 64 360 2.6 5.2 0.00 0.00 0.00 70 1014.7
20260508015827 64 360 2.6 5.2 0.00 0.00 0.00 69 1014.7
20260508015727 64 360 1.7 5.2 0.00 0.00 0.00 69 1014.8
20260508015628 64 360 1.7 5.2 0.00 0.00 0.00 69 1014.8
20260508015527 64 84 1.7 5.2 0.00 0.00 0.00 69 1014.7
20260508015432 64 360 1.7 5.2 0.00 0.00 0.00 69 1014.8
20260508015332 64 360 1.7 5.2 0.00 0.00 0.00 69 1014.8
20260508015232 64 360 1.7 5.2 0.00 0.00 0.00 69 1014.7
20260508015130 64 360 2.6 5.2 0.00 0.00 0.00 69 1014.7
20260508015031 64 360 2.6 5.2 0.00 0.00 0.00 69 1014.6
20260508014932 64 360 2.6 5.2 0.00 0.00 0.00 69 1014.6
20260508014853 64 360 2.6 5.2 0.00 0.00 0.00 69 1014.6
20260508014731 64 360 2.6 7.0 0.00 0.00 0.00 69 1014.5
20260508014652 64 360 1.7 7.0 0.00 0.00 0.00 69 1014.5
20260508014535 64 360 1.7 7.0 0.00 0.00 0.00 69 1014.5
20260508014416 64 360 1.7 7.0 0.00 0.00 0.00 69 1014.4
20260508014337 64 360 1.7 7.0 0.00 0.00 0.00 69 1014.4
20260508014257 64 360 1.7 7.0 0.00 0.00 0.00 69 1014.4
20260508014116 64 360 2.6 7.8 0.00 0.00 0.00 69 1014.5
20260508014017 64 360 3.5 7.8 0.00 0.00 0.00 69 1014.4
20260508013922 64 360 3.5 7.8 0.00 0.00 0.00 69 1014.4
20260508013822 64 360 3.5 7.8 0.00 0.00 0.00 69 1014.3
20260508013722 64 360 4.3 7.8 0.00 0.00 0.00 69 1014.4
20260508013622 64 360 3.5 7.8 0.00 0.00 0.00 69 1014.4
20260508013523 64 360 3.5 7.8 0.00 0.00 0.00 69 1014.4
20260508013424 64 360 4.3 7.0 0.00 0.00 0.00 68 1014.4
20260508013324 64 360 3.5 7.0 0.00 0.00 0.00 68 1014.6
20260508013249 64 360 3.5 7.0 0.00 0.00 0.00 68 1014.6
20260508013127 64 360 3.5 7.0 0.00 0.00 0.00 68 1014.5
20260508013028 64 360 3.5 7.0 0.00 0.00 0.00 68 1014.7
20260508012948 64 360 2.6 7.0 0.00 0.00 0.00 68 1014.7
20260508012828 64 360 2.6 7.0 0.00 0.00 0.00 68 1014.8
20260508012729 64 360 2.6 7.0 0.00 0.00 0.00 68 1014.8
20260508012628 64 360 2.6 7.0 0.00 0.00 0.00 68 1014.9
20260508012529 64 360 2.6 7.0 0.00 0.00 0.00 68 1015.0
20260508012433 64 360 3.5 7.0 0.00 0.00 0.00 68 1015.0
20260508012333 64 360 3.5 7.0 0.00 0.00 0.00 68 1014.9
20260508012233 65 360 3.5 7.0 0.00 0.00 0.00 68 1014.9
20260508012156 65 360 3.5 7.0 0.00 0.00 0.00 67 1014.8
20260508012035 65 360 3.5 7.0 0.00 0.00 0.00 67 1014.8
20260508011916 65 98 3.5 7.0 0.00 0.00 0.00 67 1015.0
20260508011821 65 360 3.5 7.0 0.00 0.00 0.00 67 1015.0
20260508011720 65 360 3.5 7.0 0.00 0.00 0.00 67 1015.1
20260508011621 65 360 3.5 7.0 0.00 0.00 0.00 67 1015.1
20260508011543 65 360 3.5 7.0 0.00 0.00 0.00 67 1015.2
20260508011422 65 360 3.5 7.0 0.00 0.00 0.00 67 1015.2
20260508011323 65 360 3.5 7.0 0.00 0.00 0.00 67 1015.3
20260508011223 65 360 2.6 7.0 0.00 0.00 0.00 67 1015.3
20260508011128 65 85 2.6 7.0 0.00 0.00 0.00 68 1015.3
20260508011027 65 360 2.6 7.0 0.00 0.00 0.00 68 1015.3
20260508010928 65 360 2.6 7.0 0.00 0.00 0.00 68 1015.3
20260508010829 65 360 2.6 7.0 0.00 0.00 0.00 68 1015.3
20260508010730 65 360 3.5 7.0 0.00 0.00 0.00 68 1015.4
20260508010629 65 360 3.5 7.0 0.00 0.00 0.00 68 1015.3
20260508010529 65 11 3.5 5.2 0.00 0.00 0.00 68 1015.4
20260508010429 65 360 3.5 7.0 0.00 0.00 0.00 68 1015.3
20260508010334 65 360 3.5 7.0 0.00 0.00 0.00 68 1015.3
20260508010233 65 360 2.6 7.0 0.00 0.00 0.00 68 1015.3
20260508010134 65 360 2.6 7.0 0.00 0.00 0.00 68 1015.3
20260508010034 65 360 2.6 7.0 0.00 0.00 0.00 68 1015.1
20260508005935 65 360 2.6 7.0 0.00 0.00 0.00 68 1015.1
20260508005818 65 360 3.5 7.0 0.00 0.00 0.00 68 1014.7
20260508005720 65 360 3.5 7.0 0.00 0.00 0.00 68 1014.7
20260508005621 65 360 3.5 7.0 0.00 0.00 0.00 68 1014.6
20260508005522 65 360 3.5 7.0 0.00 0.00 0.00 68 1014.5
20260508005422 65 360 4.3 5.2 0.00 0.00 0.00 68 1014.4
20260508005322 65 360 4.3 5.2 0.00 0.00 0.00 68 1014.5
20260508005223 65 360 4.3 5.2 0.00 0.00 0.00 68 1014.4
20260508005122 65 360 4.3 5.2 0.00 0.00 0.00 68 1014.6
20260508005028 65 360 3.5 5.2 0.00 0.00 0.00 68 1014.6
20260508004927 65 360 3.5 5.2 0.00 0.00 0.00 68 1014.9
20260508004826 65 360 3.5 5.2 0.00 0.00 0.00 68 1015.1
20260508004728 65 360 3.5 7.0 0.00 0.00 0.00 67 1015.1
20260508004628 65 360 3.5 7.0 0.00 0.00 0.00 67 1015.2
20260508004528 65 360 3.5 7.0 0.00 0.00 0.00 67 1015.3
20260508004429 65 360 3.5 7.0 0.00 0.00 0.00 67 1015.3
20260508004334 65 360 3.5 7.0 0.00 0.00 0.00 67 1015.2
20260508004235 65 360 3.5 7.0 0.00 0.00 0.00 67 1015.0
20260508004135 65 66 3.5 7.0 0.00 0.00 0.00 67 1014.9
20260508004035 65 360 4.3 7.0 0.00 0.00 0.00 67 1014.7
20260508003935 65 360 3.5 7.0 0.00 0.00 0.00 67 1014.8
20260508003856 65 360 3.5 5.2 0.00 0.00 0.00 67 1014.8
20260508003719 65 360 2.6 5.2 0.00 0.00 0.00 67 1015.1
20260508003619 65 360 2.6 5.2 0.00 0.00 0.00 67 1015.2
20260508003519 65 360 2.6 5.2 0.00 0.00 0.00 67 1015.3
20260508003440 65 360 2.6 5.2 0.00 0.00 0.00 67 1015.4
20260508003319 66 360 2.6 5.2 0.00 0.00 0.00 67 1015.5
20260508003221 66 360 2.6 5.2 0.00 0.00 0.00 67 1015.4
20260508003121 65 90 2.6 5.2 0.00 0.00 0.00 67 1015.4
20260508003026 65 360 2.6 6.1 0.00 0.00 0.00 67 1015.4
20260508002927 66 360 2.6 6.1 0.00 0.00 0.00 66 1015.4
20260508002828 66 360 2.6 6.1 0.00 0.00 0.00 66 1015.4
20260508002727 66 96 2.6 6.1 0.00 0.00 0.00 67 1015.4
20260508002626 66 360 2.6 4.3 0.00 0.00 0.00 67 1015.3
20260508002526 66 360 2.6 5.2 0.00 0.00 0.00 67 1015.3
20260508002427 66 360 2.6 7.0 0.00 0.00 0.00 67 1015.3
20260508002328 66 360 2.6 7.0 0.00 0.00 0.00 67 1015.3
20260508002232 66 360 2.6 7.0 0.00 0.00 0.00 67 1015.4
20260508002152 66 360 2.6 7.0 0.00 0.00 0.00 67 1015.4
20260508002032 66 360 3.5 5.2 0.00 0.00 0.00 66 1015.5
20260508001935 66 360 3.5 5.2 0.00 0.00 0.00 66 1015.4
20260508001855 66 360 3.5 5.2 0.00 0.00 0.00 66 1015.5
20260508001734 66 360 3.5 5.2 0.00 0.00 0.00 66 1015.5
20260508001635 66 360 3.5 5.2 0.00 0.00 0.00 66 1015.6
20260508001520 66 360 3.5 5.2 0.00 0.00 0.00 66 1015.9
20260508001420 66 360 3.5 7.0 0.00 0.00 0.00 66 1015.9
20260508001341 66 360 2.6 7.0 0.00 0.00 0.00 67 1015.9
20260508001220 66 360 2.6 7.0 0.00 0.00 0.00 66 1015.9
20260508001121 66 28 2.6 7.0 0.00 0.00 0.00 66 1015.8
20260508001021 66 360 3.5 7.0 0.00 0.00 0.00 66 1015.8
20260508000922 66 360 3.5 7.0 0.00 0.00 0.00 66 1015.6
20260508000828 66 360 3.5 7.0 0.00 0.00 0.00 66 1015.6
20260508000748 66 360 4.3 7.0 0.00 0.00 0.00 66 1015.5
20260508000627 66 360 4.3 7.0 0.00 0.00 0.00 65 1015.5
20260508000526 66 360 4.3 7.0 0.00 0.00 0.00 65 1015.5
20260508000450 66 360 3.5 7.0 0.00 0.00 0.00 65 1015.5
20260508000328 66 360 3.5 7.0 0.00 0.00 0.00 65 1015.6
20260508000227 66 360 3.5 7.0 0.00 0.00 0.00 65 1015.6
20260508000132 66 360 2.6 7.0 0.00 0.00 0.00 65 1015.6
20260508000032 67 360 3.5 7.0 0.00 0.00 0.00 65 1015.7
20260507235932 67 360 3.5 7.0 0.00 0.00 0.00 65 1015.8
20260507235832 67 360 3.5 7.0 0.00 0.00 0.00 65 1015.8
20260507235734 67 360 3.5 7.0 0.00 0.00 0.00 65 1015.9
20260507235633 67 360 3.5 7.0 0.00 0.00 0.00 65 1015.9
20260507235518 67 76 3.5 7.8 0.00 0.00 0.00 65 1016.0
20260507235419 67 360 3.5 7.8 0.00 0.00 0.00 65 1016.2
20260507235319 67 360 3.5 7.8 0.00 0.00 0.00 65 1016.1
20260507235240 67 360 3.5 7.8 0.00 0.00 0.00 65 1016.2
20260507235119 67 360 3.5 7.8 0.00 0.00 0.00 65 1016.2
20260507235022 67 360 3.5 7.8 0.00 0.00 0.00 65 1016.2
20260507234922 67 360 4.3 7.8 0.00 0.00 0.00 65 1016.2
20260507234827 67 360 4.3 7.8 0.00 0.00 0.00 65 1016.2
20260507234748 67 360 4.3 7.8 0.00 0.00 0.00 65 1016.2
20260507234626 67 360 4.3 7.8 0.00 0.00 0.00 65 1016.2
20260507234527 67 360 4.3 7.8 0.00 0.00 0.00 65 1016.2
20260507234428 67 360 4.3 7.8 0.00 0.00 0.00 65 1016.2
20260507234328 67 90 4.3 7.8 0.00 0.00 0.00 65 1016.2
20260507234228 67 360 3.5 7.8 0.00 0.00 0.00 65 1016.2
20260507234149 68 360 3.5 7.8 0.00 0.00 0.00 65 1016.2
20260507234032 68 360 4.3 7.8 0.00 0.00 0.00 65 1016.2
20260507233931 68 360 4.3 7.8 0.00 0.00 0.00 65 1016.1
20260507233852 68 79 4.3 7.8 0.00 0.00 0.00 65 1016.3
20260507233731 68 360 4.3 7.8 0.00 0.00 0.00 65 1016.3
20260507233631 68 360 3.5 7.8 0.00 0.00 0.00 65 1016.4
20260507233531 67 360 3.5 7.8 0.00 0.00 0.00 65 1016.4
20260507233431 68 360 4.3 7.8 0.00 0.00 0.00 65 1016.4
20260507233316 67 360 4.3 7.8 0.00 0.00 0.00 65 1016.2
20260507233218 67 360 4.3 7.8 0.00 0.00 0.00 64 1016.2
20260507233118 67 360 4.3 7.8 0.00 0.00 0.00 64 1016.1
20260507233019 67 360 4.3 7.8 0.00 0.00 0.00 64 1016.1
20260507232940 67 360 4.3 7.8 0.00 0.00 0.00 63 1016.2
20260507232841 68 360 4.3 7.8 0.00 0.00 0.00 64 1016.2
20260507232719 68 360 4.3 7.8 0.00 0.00 0.00 64 1016.2
20260507232621 68 360 4.3 7.8 0.00 0.00 0.00 64 1016.2
20260507232546 68 360 4.3 7.8 0.00 0.00 0.00 64 1016.3
20260507232445 68 77 4.3 7.8 0.00 0.00 0.00 64 1016.3
20260507232324 68 360 3.5 7.8 0.00 0.00 0.00 64 1016.3
20260507232225 68 360 3.5 7.8 0.00 0.00 0.00 65 1016.2
20260507232125 68 360 2.6 7.8 0.00 0.00 0.00 65 1016.3
20260507232025 68 360 2.6 7.8 0.00 0.00 0.00 65 1016.3
20260507231926 68 360 2.6 8.7 0.00 0.00 0.00 65 1016.2
20260507231830 68 360 2.6 8.7 0.00 0.00 0.00 65 1016.2
20260507231731 68 360 2.6 8.7 0.00 0.00 0.00 65 1016.2
20260507231631 68 93 3.5 8.7 0.00 0.00 0.00 65 1016.2
20260507231531 68 360 3.5 8.7 0.00 0.00 0.00 65 1016.3
20260507231431 68 347 4.3 8.7 0.00 0.00 0.00 65 1016.2
20260507231330 68 360 4.3 8.7 0.00 0.00 0.00 64 1016.2
20260507231231 68 360 4.3 8.7 0.00 0.00 0.00 64 1016.2
20260507231150 68 360 3.5 8.7 0.00 0.00 0.00 64 1016.2
20260507231034 68 360 3.5 8.7 0.00 0.00 0.00 64 1016.3
20260507230935 68 360 2.6 5.2 0.00 0.00 0.00 64 1016.3
20260507230836 68 360 2.6 5.2 0.00 0.00 0.00 64 1016.2
20260507230736 68 360 2.6 5.2 0.00 0.00 0.00 64 1016.2
20260507230617 68 360 2.6 4.3 0.00 0.00 0.00 64 1016.1
20260507230518 68 360 2.6 4.3 0.00 0.00 0.00 64 1016.0
20260507230422 68 360 2.6 5.2 0.00 0.00 0.00 65 1016.0
20260507230323 68 360 2.6 5.2 0.00 0.00 0.00 65 1016.0
20260507230224 68 360 2.6 5.2 0.00 0.00 0.00 64 1016.0
20260507230123 68 360 2.6 5.2 0.00 0.00 0.00 64 1016.0
20260507230024 68 360 2.6 5.2 0.00 0.00 0.00 64 1016.0
20260507225924 68 360 2.6 5.2 0.00 0.00 0.00 64 1016.0
20260507225829 68 360 2.6 5.2 0.00 0.00 0.00 63 1016.0
20260507225730 68 76 2.6 5.2 0.00 0.00 0.00 63 1016.0
20260507225629 68 360 2.6 5.2 0.00 0.00 0.00 63 1016.1
20260507225530 69 360 2.6 7.8 0.00 0.00 0.00 63 1016.2
20260507225450 69 360 2.6 7.8 0.00 0.00 0.00 63 1016.2
20260507225330 68 360 2.6 8.7 0.00 0.00 0.00 63 1016.4
20260507225230 68 360 2.6 8.7 0.00 0.00 0.00 64 1016.4
20260507225130 68 43 2.6 8.7 0.00 0.00 0.00 64 1016.5
20260507225034 68 360 3.5 8.7 0.00 0.00 0.00 64 1016.5
20260507224934 68 360 4.3 8.7 0.00 0.00 0.00 63 1016.6
20260507224835 68 53 5.2 8.7 0.00 0.00 0.00 63 1016.6
20260507224735 68 41 5.2 8.7 0.00 0.00 0.00 62 1016.6
20260507224635 68 360 6.1 8.7 0.00 0.00 0.00 62 1016.6
20260507224553 68 360 6.1 8.7 0.00 0.00 0.00 62 1016.6
20260507224433 68 360 6.1 8.7 0.00 0.00 0.00 63 1016.6
20260507224317 68 360 5.2 8.7 0.00 0.00 0.00 63 1016.6
20260507224217 68 360 5.2 8.7 0.00 0.00 0.00 63 1016.5
20260507224117 68 360 5.2 9.6 0.00 0.00 0.00 63 1016.5
20260507224020 68 360 4.3 9.6 0.00 0.00 0.00 63 1016.5
20260507223940 68 360 3.5 9.6 0.00 0.00 0.00 63 1016.5
20260507223840 68 360 3.5 9.6 0.00 0.00 0.00 63 1016.5
20260507223719 68 360 4.3 9.6 0.00 0.00 0.00 64 1016.6
20260507223624 68 360 4.3 9.6 0.00 0.00 0.00 63 1016.7
20260507223524 68 360 4.3 9.6 0.00 0.00 0.00 63 1016.6
20260507223424 68 360 4.3 9.6 0.00 0.00 0.00 63 1016.6
20260507223325 68 360 4.3 9.6 0.00 0.00 0.00 65 1016.7
20260507223227 68 360 4.3 8.7 0.00 0.00 0.00 64 1016.7
20260507223127 68 360 4.3 10.4 0.00 0.00 0.00 64 1016.6
20260507223047 68 360 4.3 10.4 0.00 0.00 0.00 64 1016.7
20260507222946 68 360 4.3 10.4 0.00 0.00 0.00 64 1016.7
20260507222830 68 360 4.3 10.4 0.00 0.00 0.00 64 1016.7
20260507222732 68 360 5.2 10.4 0.00 0.00 0.00 63 1016.7
20260507222632 68 360 5.2 10.4 0.00 0.00 0.00 63 1016.7
20260507222531 68 360 5.2 10.4 0.00 0.00 0.00 63 1016.8
20260507222432 68 360 5.2 10.4 0.00 0.00 0.00 63 1016.8
20260507222333 68 53 5.2 10.4 0.00 0.00 0.00 62 1016.9
20260507222218 68 360 4.3 10.4 0.00 0.00 0.00 63 1017.0
20260507222118 68 360 3.5 9.6 0.00 0.00 0.00 65 1017.0
20260507222019 68 360 3.5 9.6 0.00 0.00 0.00 65 1016.8
20260507221940 68 360 2.6 7.0 0.00 0.00 0.00 65 1016.9
20260507221820 68 360 2.6 6.1 0.00 0.00 0.00 65 1016.8
20260507221720 68 360 2.6 6.1 0.00 0.00 0.00 65 1016.8
20260507221641 68 360 2.6 6.1 0.00 0.00 0.00 65 1016.8
20260507221523 68 360 2.6 8.7 0.00 0.00 0.00 65 1016.8
20260507221423 68 360 2.6 8.7 0.00 0.00 0.00 65 1017.0
20260507221323 68 360 3.5 8.7 0.00 0.00 0.00 65 1016.9
20260507221224 68 360 3.5 8.7 0.00 0.00 0.00 65 1016.9
20260507221124 68 360 3.5 8.7 0.00 0.00 0.00 64 1016.9
20260507221024 68 360 3.5 8.7 0.00 0.00 0.00 64 1016.9
20260507220925 68 360 4.3 8.7 0.00 0.00 0.00 65 1016.8
20260507220830 68 360 4.3 8.7 0.00 0.00 0.00 64 1016.8
20260507220730 68 360 5.2 8.7 0.00 0.00 0.00 64 1016.9
20260507220629 68 360 5.2 8.7 0.00 0.00 0.00 64 1016.9
20260507220529 68 360 4.3 7.8 0.00 0.00 0.00 64 1017.0
20260507220450 68 360 4.3 7.8 0.00 0.00 0.00 63 1017.0
20260507220328 68 360 4.3 8.7 0.00 0.00 0.00 64 1017.0
20260507220230 68 360 4.3 8.7 0.00 0.00 0.00 63 1017.0
20260507220151 68 360 4.3 8.7 0.00 0.00 0.00 64 1017.0
20260507220030 68 360 4.3 8.7 0.00 0.00 0.00 64 1017.0
20260507215955 68 360 3.5 11.3 0.00 0.00 0.00 64 1017.0
20260507215833 68 360 3.5 11.3 0.00 0.00 0.00 64 1017.0
20260507215755 68 37 4.3 11.3 0.00 0.00 0.00 64 1017.0
20260507215635 68 360 4.3 11.3 0.00 0.00 0.00 64 1017.0
20260507215535 68 360 5.2 11.3 0.00 0.00 0.00 63 1016.9
20260507215455 68 360 6.1 11.3 0.00 0.00 0.00 63 1016.9
20260507215335 68 360 5.2 11.3 0.00 0.00 0.00 62 1016.9
20260507215254 68 360 6.1 11.3 0.00 0.00 0.00 62 1016.9
20260507215118 68 360 7.0 11.3 0.00 0.00 0.00 62 1016.9
20260507215018 68 360 6.1 10.4 0.00 0.00 0.00 62 1016.9
20260507214918 68 37 6.1 10.4 0.00 0.00 0.00 62 1016.9
20260507214820 68 360 6.1 10.4 0.00 0.00 0.00 62 1016.8
20260507214720 68 360 6.1 10.4 0.00 0.00 0.00 62 1016.8
20260507214620 68 360 6.1 10.4 0.00 0.00 0.00 63 1016.8
20260507214520 68 360 6.1 10.4 0.00 0.00 0.00 63 1016.8
20260507214423 68 360 5.2 10.4 0.00 0.00 0.00 63 1016.9
20260507214344 68 360 5.2 10.4 0.00 0.00 0.00 62 1016.9
20260507214223 68 360 5.2 10.4 0.00 0.00 0.00 62 1016.9
20260507214124 68 360 4.3 10.4 0.00 0.00 0.00 63 1016.9
20260507214023 68 15 4.3 10.4 0.00 0.00 0.00 64 1017.0
20260507213924 68 360 4.3 10.4 0.00 0.00 0.00 63 1017.0
20260507213824 68 360 5.2 10.4 0.00 0.00 0.00 63 1016.9
20260507213725 67 360 5.2 11.3 0.00 0.00 0.00 63 1017.0
20260507213629 67 360 6.1 11.3 0.00 0.00 0.00 63 1017.0
20260507213530 67 360 6.1 11.3 0.00 0.00 0.00 63 1017.0
20260507213430 67 360 6.1 11.3 0.00 0.00 0.00 62 1016.9
20260507213350 67 360 6.1 11.3 0.00 0.00 0.00 62 1016.9
20260507213230 67 360 6.1 11.3 0.00 0.00 0.00 62 1016.8
20260507213129 67 360 6.1 11.3 0.00 0.00 0.00 62 1016.9
20260507213030 67 360 6.1 11.3 0.00 0.00 0.00 62 1016.9
20260507212955 68 360 5.2 11.3 0.00 0.00 0.00 62 1016.9
20260507212834 68 360 6.1 11.3 0.00 0.00 0.00 62 1017.0
20260507212736 68 360 6.1 12.2 0.00 0.00 0.00 62 1016.9
20260507212635 68 360 6.1 12.2 0.00 0.00 0.00 62 1016.9
20260507212536 68 360 7.0 12.2 0.00 0.00 0.00 61 1016.9
20260507212435 68 360 6.1 12.2 0.00 0.00 0.00 61 1017.0
20260507212335 68 360 6.1 12.2 0.00 0.00 0.00 62 1017.0
20260507212220 68 360 6.1 12.2 0.00 0.00 0.00 62 1016.9
20260507212120 68 360 6.1 12.2 0.00 0.00 0.00 62 1016.7
20260507212021 68 360 7.0 12.2 0.00 0.00 0.00 63 1016.7
20260507211921 68 360 7.0 12.2 0.00 0.00 0.00 63 1016.6
20260507211822 67 360 6.1 12.2 0.00 0.00 0.00 63 1016.5
20260507211724 67 360 7.0 12.2 0.00 0.00 0.00 63 1016.6
20260507211644 67 360 7.0 12.2 0.00 0.00 0.00 63 1016.6
20260507211528 67 360 6.1 13.0 0.00 0.00 0.00 63 1016.6
20260507211429 67 360 6.1 13.0 0.00 0.00 0.00 63 1016.8
20260507211350 67 360 6.1 13.0 0.00 0.00 0.00 63 1016.8
20260507211228 67 360 7.0 13.0 0.00 0.00 0.00 62 1016.9
20260507211129 67 360 7.0 13.0 0.00 0.00 0.00 62 1017.0
20260507211030 68 360 7.0 13.0 0.00 0.00 0.00 62 1017.0
20260507210931 68 360 6.1 13.0 0.00 0.00 0.00 62 1017.0
20260507210836 68 360 6.1 13.0 0.00 0.00 0.00 62 1017.1
20260507210735 68 360 6.1 13.0 0.00 0.00 0.00 62 1017.1
20260507210616 68 360 6.1 13.0 0.00 0.00 0.00 64 1017.1
20260507210516 68 360 6.1 13.0 0.00 0.00 0.00 64 1017.0
20260507210417 68 360 5.2 13.0 0.00 0.00 0.00 64 1017.0
20260507210318 67 360 5.2 13.0 0.00 0.00 0.00 64 1017.0
20260507210222 67 360 4.3 13.0 0.00 0.00 0.00 66 1017.0
20260507210142 67 360 5.2 13.0 0.00 0.00 0.00 66 1016.9
20260507210021 67 360 6.1 13.0 0.00 0.00 0.00 66 1016.8
20260507205922 67 360 5.2 13.0 0.00 0.00 0.00 66 1016.8
20260507205824 66 360 6.1 13.0 0.00 0.00 0.00 66 1016.7
20260507205724 66 360 6.1 13.0 0.00 0.00 0.00 66 1016.7
20260507205624 66 360 6.1 13.0 0.00 0.00 0.00 65 1016.7
20260507205529 66 360 6.1 13.0 0.00 0.00 0.00 65 1016.7
20260507205429 66 360 6.1 13.0 0.00 0.00 0.00 65 1016.7
20260507205328 66 360 6.1 13.0 0.00 0.00 0.00 65 1016.8
20260507205248 66 360 7.0 13.0 0.00 0.00 0.00 65 1016.8
20260507205126 66 360 6.1 13.0 0.00 0.00 0.00 66 1016.8
20260507205026 66 360 7.0 13.0 0.00 0.00 0.00 66 1016.8
20260507204927 66 360 7.0 13.0 0.00 0.00 0.00 65 1016.8
20260507204828 66 360 7.0 13.0 0.00 0.00 0.00 65 1016.8
20260507204747 66 360 7.8 13.0 0.00 0.00 0.00 65 1016.8
20260507204632 66 360 8.7 13.9 0.00 0.00 0.00 65 1016.8
20260507204533 66 360 8.7 13.9 0.00 0.00 0.00 66 1016.8
20260507204432 66 360 8.7 13.9 0.00 0.00 0.00 66 1016.8
20260507204332 66 360 8.7 13.9 0.00 0.00 0.00 66 1016.8
20260507204232 66 360 9.6 13.9 0.00 0.00 0.00 65 1016.8
20260507204155 66 360 8.7 13.9 0.00 0.00 0.00 65 1016.9
20260507204035 66 360 8.7 13.9 0.00 0.00 0.00 65 1017.0
20260507203919 66 360 7.8 13.9 0.00 0.00 0.00 65 1017.0
20260507203820 66 360 7.8 13.9 0.00 0.00 0.00 65 1017.0
20260507203721 66 42 7.8 13.9 0.00 0.00 0.00 64 1017.2
20260507203620 66 360 7.8 13.9 0.00 0.00 0.00 64 1017.2
20260507203521 66 360 7.0 12.2 0.00 0.00 0.00 64 1017.2
20260507203421 66 360 7.0 12.2 0.00 0.00 0.00 64 1017.2
20260507203342 66 360 7.0 13.9 0.00 0.00 0.00 64 1017.3
20260507203226 66 360 7.8 13.9 0.00 0.00 0.00 65 1017.3
20260507203127 66 360 7.8 13.9 0.00 0.00 0.00 65 1017.4
20260507203029 66 360 7.0 13.9 0.00 0.00 0.00 65 1017.5
20260507202930 66 360 6.1 13.9 0.00 0.00 0.00 65 1017.5
20260507202831 66 360 6.1 13.9 0.00 0.00 0.00 65 1017.6
20260507202732 66 360 6.1 13.9 0.00 0.00 0.00 65 1017.7
20260507202616 66 360 5.2 13.9 0.00 0.00 0.00 66 1017.6
20260507202517 66 360 5.2 13.9 0.00 0.00 0.00 66 1017.7
20260507202434 66 47 5.2 11.3 0.00 0.00 0.00 66 1017.7
20260507202337 66 360 6.1 11.3 0.00 0.00 0.00 66 1017.7
20260507202238 66 360 6.1 11.3 0.00 0.00 0.00 66 1017.6
20260507202118 66 360 6.1 11.3 0.00 0.00 0.00 65 1017.6
20260507202018 66 360 6.1 11.3 0.00 0.00 0.00 66 1017.6
20260507201918 66 360 6.1 11.3 0.00 0.00 0.00 66 1017.6
20260507201824 66 360 6.1 11.3 0.00 0.00 0.00 66 1017.7
20260507201744 66 360 6.1 12.2 0.00 0.00 0.00 66 1017.7
20260507201623 66 360 6.1 12.2 0.00 0.00 0.00 66 1017.7
20260507201544 66 360 5.2 12.2 0.00 0.00 0.00 66 1017.7
20260507201424 66 360 6.1 12.2 0.00 0.00 0.00 66 1017.6
20260507201324 66 360 6.1 12.2 0.00 0.00 0.00 66 1017.5
20260507201225 66 360 7.0 12.2 0.00 0.00 0.00 66 1017.6
20260507201131 66 360 7.0 13.9 0.00 0.00 0.00 66 1017.6
20260507201051 66 360 7.8 13.9 0.00 0.00 0.00 66 1017.6
20260507200931 66 360 7.8 13.9 0.00 0.00 0.00 66 1017.7
20260507200832 66 360 8.7 13.9 0.00 0.00 0.00 66 1017.6
20260507200752 66 360 8.7 13.9 0.00 0.00 0.00 66 1017.7
20260507200632 66 360 8.7 13.9 0.00 0.00 0.00 66 1017.6
20260507200533 66 360 7.8 13.9 0.00 0.00 0.00 66 1017.7
20260507200417 66 360 7.8 13.9 0.00 0.00 0.00 66 1017.7
20260507200317 66 360 7.8 13.9 0.00 0.00 0.00 66 1017.8
20260507200219 66 360 7.8 13.9 0.00 0.00 0.00 67 1017.7
20260507200119 66 360 7.8 13.9 0.00 0.00 0.00 67 1017.8
20260507200020 67 360 7.8 13.0 0.00 0.00 0.00 67 1017.7
20260507195941 66 360 7.8 13.0 0.00 0.00 0.00 67 1017.6
20260507195822 66 323 7.8 13.0 0.00 0.00 0.00 67 1017.5
20260507195741 67 360 7.0 13.0 0.00 0.00 0.00 67 1017.5
20260507195625 67 360 7.0 13.0 0.00 0.00 0.00 67 1017.4
20260507195526 67 360 7.0 13.0 0.00 0.00 0.00 67 1017.4
20260507195425 67 360 7.0 13.0 0.00 0.00 0.00 67 1017.4
20260507195326 67 360 7.0 13.0 0.00 0.00 0.00 67 1017.4
20260507195227 66 360 6.1 13.0 0.00 0.00 0.00 67 1017.4
20260507195127 66 360 7.0 13.0 0.00 0.00 0.00 67 1017.4
20260507195028 66 360 7.0 13.0 0.00 0.00 0.00 67 1017.4
20260507194932 66 360 7.0 11.3 0.00 0.00 0.00 67 1017.6
20260507194833 66 360 7.0 11.3 0.00 0.00 0.00 67 1017.7
20260507194733 66 360 6.1 11.3 0.00 0.00 0.00 67 1017.9
20260507194634 66 360 6.1 13.0 0.00 0.00 0.00 67 1018.0
20260507194534 66 360 6.1 13.0 0.00 0.00 0.00 67 1018.0
20260507194435 66 360 6.1 13.0 0.00 0.00 0.00 67 1018.1
20260507194319 66 360 6.1 13.0 0.00 0.00 0.00 66 1018.0
20260507194220 66 360 6.1 13.0 0.00 0.00 0.00 67 1018.0
20260507194140 66 360 6.1 13.0 0.00 0.00 0.00 67 1018.0
20260507194019 66 360 7.0 13.0 0.00 0.00 0.00 68 1017.9
20260507193919 66 360 7.0 13.0 0.00 0.00 0.00 68 1017.9
20260507193819 66 360 7.0 13.0 0.00 0.00 0.00 68 1017.9
20260507193719 66 360 7.0 13.0 0.00 0.00 0.00 68 1017.8
20260507193621 66 360 7.8 13.0 0.00 0.00 0.00 68 1017.8
20260507193526 66 360 7.8 13.0 0.00 0.00 0.00 68 1017.9
20260507193425 66 360 7.8 13.0 0.00 0.00 0.00 68 1017.9
20260507193326 66 360 7.0 13.0 0.00 0.00 0.00 68 1017.8
20260507193225 66 360 6.1 13.0 0.00 0.00 0.00 68 1017.9
20260507193126 66 49 6.1 12.2 0.00 0.00 0.00 68 1017.9
20260507193026 66 360 5.2 12.2 0.00 0.00 0.00 68 1017.8
20260507192926 66 360 5.2 12.2 0.00 0.00 0.00 69 1017.8
20260507192830 66 360 4.3 10.4 0.00 0.00 0.00 70 1017.8
20260507192753 66 64 4.3 9.6 0.00 0.00 0.00 70 1017.9
20260507192630 66 360 4.3 9.6 0.00 0.00 0.00 70 1018.0
20260507192552 66 360 5.2 9.6 0.00 0.00 0.00 70 1017.9
20260507192433 66 360 5.2 9.6 0.00 0.00 0.00 70 1018.0
20260507192353 66 360 5.2 9.6 0.00 0.00 0.00 71 1018.0
20260507192232 65 360 5.2 9.6 0.00 0.00 0.00 71 1018.0
20260507192116 65 360 5.2 9.6 0.00 0.00 0.00 70 1018.2
20260507192017 65 360 5.2 9.6 0.00 0.00 0.00 71 1018.2
20260507191918 65 360 4.3 8.7 0.00 0.00 0.00 71 1018.2
20260507191839 65 360 4.3 8.7 0.00 0.00 0.00 71 1018.3
20260507191717 65 360 4.3 8.7 0.00 0.00 0.00 71 1018.3
20260507191618 64 360 4.3 8.7 0.00 0.00 0.00 71 1018.3
20260507191519 64 360 4.3 8.7 0.00 0.00 0.00 71 1018.2
20260507191439 64 360 3.5 8.7 0.00 0.00 0.00 72 1018.2
20260507191323 64 360 3.5 8.7 0.00 0.00 0.00 72 1018.2
20260507191223 64 360 4.3 8.7 0.00 0.00 0.00 72 1018.2
20260507191124 64 360 4.3 8.7 0.00 0.00 0.00 72 1018.2
20260507191045 64 360 4.3 8.7 0.00 0.00 0.00 72 1018.2
20260507190924 64 360 4.3 8.7 0.00 0.00 0.00 72 1018.2
20260507190824 64 360 4.3 8.7 0.00 0.00 0.00 72 1018.1
20260507190723 64 360 4.3 8.7 0.00 0.00 0.00 72 1018.1
20260507190628 64 360 4.3 7.8 0.00 0.00 0.00 72 1018.1
20260507190529 64 360 4.3 7.8 0.00 0.00 0.00 72 1018.2
20260507190430 64 360 3.5 7.8 0.00 0.00 0.00 73 1018.2
20260507190330 64 360 3.5 7.0 0.00 0.00 0.00 73 1018.2
20260507190230 64 360 2.6 7.0 0.00 0.00 0.00 73 1018.4
20260507190131 64 360 3.5 7.8 0.00 0.00 0.00 73 1018.4
20260507190031 64 360 2.6 7.8 0.00 0.00 0.00 73 1018.5
20260507185935 64 70 3.5 10.4 0.00 0.00 0.00 72 1018.4
20260507185834 63 360 3.5 10.4 0.00 0.00 0.00 72 1018.3
20260507185736 63 360 4.3 10.4 0.00 0.00 0.00 72 1018.1
20260507185656 63 360 4.3 10.4 0.00 0.00 0.00 72 1018.0
20260507185535 63 360 5.2 10.4 0.00 0.00 0.00 72 1018.0
20260507185416 63 82 6.1 10.4 0.00 0.00 0.00 72 1018.0
20260507185319 63 360 6.1 10.4 0.00 0.00 0.00 72 1018.1
20260507185220 63 360 6.1 10.4 0.00 0.00 0.00 71 1018.0
20260507185121 63 360 6.1 10.4 0.00 0.00 0.00 71 1018.0
20260507185021 64 66 6.1 10.4 0.00 0.00 0.00 71 1018.0
20260507184943 64 360 6.1 9.6 0.00 0.00 0.00 71 1018.0
20260507184816 64 360 5.2 9.6 0.00 0.00 0.00 71 1018.2
20260507184717 64 360 6.1 9.6 0.00 0.00 0.00 71 1018.3
20260507184622 64 360 6.1 9.6 0.00 0.00 0.00 71 1018.3
20260507184521 64 360 6.1 9.6 0.00 0.00 0.00 71 1018.4
20260507184443 64 360 6.1 9.6 0.00 0.00 0.00 71 1018.4
20260507184316 64 360 5.2 9.6 0.00 0.00 0.00 72 1018.5
20260507184216 64 360 5.2 9.6 0.00 0.00 0.00 72 1018.5
20260507184118 64 360 5.2 9.6 0.00 0.00 0.00 72 1018.6
20260507184023 64 360 5.2 9.6 0.00 0.00 0.00 72 1018.7
20260507183921 64 360 5.2 9.6 0.00 0.00 0.00 72 1018.7
20260507183822 64 70 5.2 9.6 0.00 0.00 0.00 72 1018.6
20260507183723 64 360 6.1 9.6 0.00 0.00 0.00 72 1018.6
20260507183643 64 360 6.1 10.4 0.00 0.00 0.00 72 1018.5
20260507183523 64 360 6.1 10.4 0.00 0.00 0.00 72 1018.6
20260507183444 64 360 6.1 10.4 0.00 0.00 0.00 72 1018.6
20260507183343 64 360 6.1 10.4 0.00 0.00 0.00 72 1018.6
20260507183223 64 360 6.1 10.4 0.00 0.00 0.00 71 1018.6
20260507183128 64 360 6.1 10.4 0.00 0.00 0.00 72 1018.6
20260507183028 64 360 5.2 10.4 0.00 0.00 0.00 72 1018.6
20260507182928 64 360 5.2 10.4 0.00 0.00 0.00 72 1018.6
20260507182849 64 91 5.2 10.4 0.00 0.00 0.00 72 1018.7
20260507182726 64 360 5.2 10.4 0.00 0.00 0.00 72 1018.6
20260507182648 64 360 4.3 12.2 0.00 0.00 0.00 72 1018.6
20260507182547 64 360 5.2 12.2 0.00 0.00 0.00 72 1018.6
20260507182447 64 360 5.2 12.2 0.00 0.00 0.00 72 1018.6
20260507182326 64 360 5.2 12.2 0.00 0.00 0.00 72 1018.8
20260507182230 64 360 5.2 12.2 0.00 0.00 0.00 72 1018.8
20260507182150 64 360 5.2 12.2 0.00 0.00 0.00 72 1018.8
20260507182030 64 360 6.1 12.2 0.00 0.00 0.00 72 1018.8
20260507181930 64 360 6.1 12.2 0.00 0.00 0.00 73 1018.8
20260507181831 64 360 5.2 12.2 0.00 0.00 0.00 73 1018.8
20260507181732 64 360 5.2 10.4 0.00 0.00 0.00 73 1018.7
20260507181652 64 360 4.3 8.7 0.00 0.00 0.00 72 1018.7
20260507181517 64 360 5.2 9.6 0.00 0.00 0.00 73 1018.6
20260507181418 64 360 4.3 9.6 0.00 0.00 0.00 73 1018.6
20260507181318 64 360 4.3 13.0 0.00 0.00 0.00 73 1018.6
20260507181218 64 360 4.3 13.0 0.00 0.00 0.00 73 1018.7
20260507181119 64 360 4.3 13.0 0.00 0.00 0.00 73 1018.7
20260507181019 64 360 5.2 13.0 0.00 0.00 0.00 72 1018.8
20260507180920 64 360 6.1 13.0 0.00 0.00 0.00 73 1018.8
20260507180824 64 360 6.1 13.0 0.00 0.00 0.00 73 1018.8
20260507180724 63 12 7.0 13.0 0.00 0.00 0.00 73 1018.7
20260507180625 63 360 7.0 13.0 0.00 0.00 0.00 73 1018.6
20260507180525 63 360 7.0 13.0 0.00 0.00 0.00 73 1018.5
20260507180426 63 360 7.0 12.2 0.00 0.00 0.00 74 1018.4
20260507180345 63 360 6.1 12.2 0.00 0.00 0.00 74 1018.4
20260507180224 63 360 5.2 10.4 0.00 0.00 0.00 73 1018.4
20260507180129 63 360 5.2 10.4 0.00 0.00 0.00 74 1018.4
20260507180029 63 360 4.3 10.4 0.00 0.00 0.00 74 1018.4
20260507175929 63 360 4.3 10.4 0.00 0.00 0.00 75 1018.5
20260507175830 63 360 4.3 10.4 0.00 0.00 0.00 75 1018.4
20260507175730 62 360 5.2 11.3 0.00 0.00 0.00 75 1018.4
20260507175630 62 360 5.2 11.3 0.00 0.00 0.00 74 1018.5
20260507175534 62 360 6.1 11.3 0.00 0.00 0.00 75 1018.5
20260507175435 62 360 6.1 11.3 0.00 0.00 0.00 75 1018.4
20260507175334 62 360 5.2 11.3 0.00 0.00 0.00 76 1018.6
20260507175236 62 360 5.2 11.3 0.00 0.00 0.00 76 1018.6
20260507175136 62 360 5.2 11.3 0.00 0.00 0.00 76 1018.6
20260507175056 62 360 5.2 11.3 0.00 0.00 0.00 75 1018.5
20260507174935 62 360 6.1 11.3 0.00 0.00 0.00 75 1018.4
20260507174819 62 360 6.1 10.4 0.00 0.00 0.00 76 1018.2
20260507174740 62 360 6.1 10.4 0.00 0.00 0.00 76 1018.3
20260507174620 62 360 6.1 10.4 0.00 0.00 0.00 76 1018.3
20260507174520 62 360 5.2 10.4 0.00 0.00 0.00 76 1018.3
20260507174420 61 360 5.2 10.4 0.00 0.00 0.00 76 1018.3
20260507174322 61 360 5.2 10.4 0.00 0.00 0.00 76 1018.3
20260507174243 61 360 5.2 10.4 0.00 0.00 0.00 77 1018.4
20260507174127 61 360 5.2 10.4 0.00 0.00 0.00 76 1018.4
20260507174028 61 360 7.0 10.4 0.00 0.00 0.00 76 1018.4
20260507173929 61 360 7.0 11.3 0.00 0.00 0.00 76 1018.3
20260507173830 61 360 6.1 11.3 0.00 0.00 0.00 76 1018.3
20260507173731 61 360 6.1 11.3 0.00 0.00 0.00 76 1018.1
20260507173631 61 360 6.1 11.3 0.00 0.00 0.00 76 1018.1
20260507173531 61 360 6.1 11.3 0.00 0.00 0.00 76 1018.2
20260507173416 61 360 7.0 11.3 0.00 0.00 0.00 77 1018.4
20260507173336 61 360 7.0 11.3 0.00 0.00 0.00 77 1018.4
20260507173236 61 360 7.0 11.3 0.00 0.00 0.00 77 1018.5
20260507173135 61 360 6.1 11.3 0.00 0.00 0.00 77 1018.5
20260507173016 61 360 5.2 9.6 0.00 0.00 0.00 76 1018.6
20260507172916 61 360 4.3 7.8 0.00 0.00 0.00 77 1018.6
20260507172822 61 360 4.3 7.8 0.00 0.00 0.00 77 1018.6
20260507172721 61 360 3.5 7.8 0.00 0.00 0.00 77 1018.7
20260507172621 61 360 3.5 7.8 0.00 0.00 0.00 77 1018.7
20260507172522 61 360 4.3 8.7 0.00 0.00 0.00 78 1018.6
20260507172422 61 360 3.5 8.7 0.00 0.00 0.00 78 1018.6
20260507172323 61 360 4.3 8.7 0.00 0.00 0.00 78 1018.7
20260507172224 61 360 4.3 8.7 0.00 0.00 0.00 78 1018.7
20260507172129 61 360 4.3 8.7 0.00 0.00 0.00 78 1018.7
20260507172049 61 360 4.3 8.7 0.00 0.00 0.00 78 1018.7
20260507171929 61 360 4.3 8.7 0.00 0.00 0.00 78 1018.7
20260507171827 61 78 3.5 8.7 0.00 0.00 0.00 78 1018.7
20260507171727 61 360 3.5 8.7 0.00 0.00 0.00 78 1018.6
20260507171648 61 360 3.5 8.7 0.00 0.00 0.00 78 1018.6
20260507171527 60 360 4.3 8.7 0.00 0.00 0.00 78 1018.7
20260507171428 60 79 5.2 8.7 0.00 0.00 0.00 78 1018.7
20260507171330 60 360 5.2 8.7 0.00 0.00 0.00 78 1018.7
20260507171231 60 360 5.2 8.7 0.00 0.00 0.00 77 1018.8
20260507171131 60 360 5.2 8.7 0.00 0.00 0.00 77 1018.7
20260507171031 60 360 4.3 8.7 0.00 0.00 0.00 79 1018.8
20260507170932 61 360 4.3 9.6 0.00 0.00 0.00 79 1018.8
20260507170832 60 37 3.5 9.6 0.00 0.00 0.00 78 1018.9
20260507170717 60 360 3.5 9.6 0.00 0.00 0.00 78 1018.9
20260507170618 60 360 3.5 9.6 0.00 0.00 0.00 79 1018.9
20260507170538 60 360 4.3 9.6 0.00 0.00 0.00 79 1018.8
20260507170418 60 360 5.2 9.6 0.00 0.00 0.00 79 1018.7
20260507170317 60 360 5.2 9.6 0.00 0.00 0.00 79 1018.6
20260507170219 60 360 5.2 9.6 0.00 0.00 0.00 79 1018.7
20260507170139 60 360 5.2 9.6 0.00 0.00 0.00 79 1018.7
20260507170019 61 360 4.3 9.6 0.00 0.00 0.00 79 1018.8
20260507165943 61 360 5.2 9.6 0.00 0.00 0.00 79 1018.8
20260507165844 61 360 6.1 9.6 0.00 0.00 0.00 79 1018.8
20260507165716 61 360 5.2 9.6 0.00 0.00 0.00 79 1018.7
20260507165637 61 360 5.2 9.6 0.00 0.00 0.00 78 1018.7
20260507165516 61 360 4.3 9.6 0.00 0.00 0.00 79 1018.8
20260507165417 61 360 4.3 9.6 0.00 0.00 0.00 79 1019.1
20260507165318 61 360 5.2 9.6 0.00 0.00 0.00 79 1019.1
20260507165238 61 360 5.2 9.6 0.00 0.00 0.00 79 1019.1
20260507165203 61 44 5.2 9.6 0.00 0.00 0.00 79 1019.1
20260507165104 61 360 4.3 9.6 0.00 0.00 0.00 80 1019.2
20260507164916 60 360 4.3 9.6 0.00 0.00 0.00 80 1019.1
20260507164816 60 360 4.3 10.4 0.00 0.00 0.00 80 1019.1
20260507164717 60 360 5.2 11.3 0.00 0.00 0.00 80 1019.2
20260507164617 60 20 5.2 11.3 0.00 0.00 0.00 80 1019.2
20260507164518 60 360 5.2 11.3 0.00 0.00 0.00 80 1019.2
20260507164423 60 360 5.2 11.3 0.00 0.00 0.00 80 1019.1
20260507164324 60 360 5.2 11.3 0.00 0.00 0.00 80 1019.1
20260507164224 60 360 5.2 11.3 0.00 0.00 0.00 80 1019.1
20260507164125 60 360 5.2 11.3 0.00 0.00 0.00 80 1019.0
20260507164026 60 45 4.3 11.3 0.00 0.00 0.00 80 1019.0
20260507163927 60 360 4.3 11.3 0.00 0.00 0.00 80 1019.0
20260507163831 60 360 4.3 11.3 0.00 0.00 0.00 80 1019.0
20260507163732 60 360 4.3 11.3 0.00 0.00 0.00 80 1019.0
20260507163634 60 360 5.2 11.3 0.00 0.00 0.00 80 1018.9
20260507163534 60 51 6.1 11.3 0.00 0.00 0.00 80 1019.0
20260507163454 60 360 5.2 11.3 0.00 0.00 0.00 81 1019.0
20260507163354 60 360 5.2 10.4 0.00 0.00 0.00 81 1018.9
20260507163234 60 360 4.3 10.4 0.00 0.00 0.00 81 1018.8
20260507163119 60 360 4.3 10.4 0.00 0.00 0.00 81 1018.7
20260507163019 60 360 3.5 11.3 0.00 0.00 0.00 81 1018.9
20260507162940 60 360 3.5 11.3 0.00 0.00 0.00 81 1019.1
20260507162820 60 360 3.5 11.3 0.00 0.00 0.00 82 1019.1
20260507162741 60 360 4.3 11.3 0.00 0.00 0.00 81 1019.1
20260507162620 60 360 5.2 11.3 0.00 0.00 0.00 81 1019.1
20260507162521 60 56 5.2 13.0 0.00 0.00 0.00 81 1019.2
20260507162421 60 360 6.1 13.0 0.00 0.00 0.00 82 1019.3
20260507162344 60 360 5.2 13.9 0.00 0.00 0.00 82 1019.3
20260507162224 60 360 5.2 13.9 0.00 0.00 0.00 81 1019.3
20260507162124 60 360 5.2 13.9 0.00 0.00 0.00 82 1019.4
20260507162025 60 360 6.1 13.9 0.00 0.00 0.00 82 1019.4
20260507161925 60 360 7.0 13.9 0.00 0.00 0.00 82 1019.4
20260507161826 60 360 7.8 13.9 0.00 0.00 0.00 82 1019.3
20260507161725 60 360 7.0 13.9 0.00 0.00 0.00 82 1019.2
20260507161630 60 360 7.0 13.9 0.00 0.00 0.00 82 1019.2
20260507161530 60 360 7.0 13.9 0.00 0.00 0.00 82 1019.1
20260507161430 60 360 7.8 13.9 0.00 0.00 0.00 82 1019.0
20260507161331 60 360 8.7 13.9 0.00 0.00 0.00 82 1018.8
20260507161232 60 360 8.7 13.9 0.00 0.00 0.00 82 1019.0
20260507161133 60 360 8.7 12.2 0.00 0.00 0.00 82 1019.1
20260507161017 60 360 7.8 12.2 0.00 0.00 0.00 82 1019.3
20260507160918 60 360 7.8 13.0 0.00 0.00 0.00 82 1019.4
20260507160818 60 360 7.0 13.0 0.00 0.00 0.00 82 1019.6
20260507160719 60 18 7.0 13.0 0.00 0.00 0.00 82 1019.8
20260507160620 60 360 7.0 13.0 0.00 0.00 0.00 82 1019.9
20260507160521 60 360 7.0 13.0 0.00 0.00 0.00 82 1020.1
20260507160427 60 360 7.0 13.0 0.00 0.00 0.00 82 1020.1
20260507160327 60 360 7.8 13.0 0.00 0.00 0.00 82 1020.1
20260507160226 60 360 7.8 13.0 0.00 0.00 0.00 82 1020.1
20260507160124 60 360 7.8 13.0 0.00 0.00 0.00 82 1020.1
20260507160045 60 360 7.0 12.2 0.00 0.00 0.00 82 1020.1
20260507155925 60 360 7.0 12.2 0.00 0.00 0.00 83 1020.1
20260507155827 60 360 7.0 11.3 0.00 0.00 0.00 83 1020.1
20260507155747 60 360 7.8 11.3 0.00 0.00 0.00 83 1019.7
20260507155625 60 360 7.0 11.3 0.00 0.00 0.00 83 1019.7
20260507155530 60 360 7.0 11.3 0.00 0.00 0.00 83 1019.7
20260507155430 60 360 7.0 11.3 0.00 0.00 0.00 83 1019.5
20260507155331 60 360 6.1 11.3 0.00 0.00 0.00 83 1019.5
20260507155232 60 360 5.2 9.6 0.00 0.00 0.00 83 1019.3
20260507155132 60 360 4.3 9.6 0.00 0.00 0.00 83 1019.3
20260507155032 60 360 4.3 9.6 0.00 0.00 0.00 83 1019.1
20260507154917 60 360 4.3 12.2 0.00 0.00 0.00 83 1019.1
20260507154818 60 360 4.3 12.2 0.00 0.00 0.00 83 1019.1
20260507154719 59 360 5.2 12.2 0.00 0.00 0.00 83 1019.1
20260507154619 59 360 6.1 12.2 0.00 0.00 0.00 83 1019.2
20260507154520 59 360 6.1 12.2 0.00 0.00 0.00 83 1019.3
20260507154420 59 50 7.0 12.2 0.00 0.00 0.00 83 1019.3
20260507154324 59 360 7.0 12.2 0.00 0.00 0.00 83 1019.3
20260507154225 59 360 7.0 12.2 0.00 0.00 0.00 83 1019.4
20260507154126 59 360 7.0 12.2 0.00 0.00 0.00 83 1019.4
20260507154027 59 360 7.8 12.2 0.00 0.00 0.00 84 1019.3
20260507153948 59 360 7.8 12.2 0.00 0.00 0.00 84 1019.4
20260507153826 59 360 7.8 12.2 0.00 0.00 0.00 84 1019.4
20260507153727 59 360 7.8 12.2 0.00 0.00 0.00 84 1019.4
20260507153631 59 360 7.8 12.2 0.00 0.00 0.00 84 1019.4
20260507153532 59 360 7.8 12.2 0.00 0.00 0.00 84 1019.4
20260507153428 59 360 7.8 12.2 0.00 0.00 0.00 84 1019.4
20260507153329 59 360 7.8 12.2 0.00 0.00 0.00 84 1019.5
20260507153231 59 360 7.8 12.2 0.00 0.00 0.00 84 1019.6
20260507153132 59 360 7.0 12.2 0.00 0.00 0.00 84 1019.5
20260507153031 59 360 7.0 12.2 0.00 0.00 0.00 84 1019.5
20260507152956 59 360 6.1 12.2 0.00 0.00 0.00 84 1019.6
20260507152817 59 360 5.2 10.4 0.00 0.00 0.00 84 1019.5
20260507152717 59 360 6.1 10.4 0.00 0.00 0.00 84 1019.6
20260507152618 59 360 6.1 9.6 0.00 0.00 0.00 84 1019.5
20260507152518 59 360 5.2 8.7 0.00 0.00 0.00 85 1019.5
20260507152418 59 360 4.3 8.7 0.00 0.00 0.00 85 1019.5
20260507152338 59 360 3.5 12.2 0.00 0.00 0.00 85 1019.3
20260507152242 59 360 4.3 12.2 0.00 0.00 0.00 85 1019.3
20260507152115 59 360 4.3 13.9 0.00 0.00 0.00 85 1019.3
20260507152016 59 360 3.5 13.9 0.00 0.00 0.00 85 1019.3
20260507151918 59 360 4.3 13.9 0.00 0.00 0.00 85 1019.4
20260507151818 59 360 4.3 13.9 0.00 0.00 0.00 85 1019.4
20260507151738 59 360 6.1 13.9 0.00 0.00 0.00 85 1019.4
20260507151618 59 360 7.0 13.9 0.00 0.00 0.00 85 1019.4
20260507151542 59 360 7.8 13.9 0.00 0.00 0.00 84 1019.4
20260507151416 59 360 8.7 13.9 0.00 0.00 0.00 84 1019.6
20260507151316 59 360 9.6 13.9 0.00 0.00 0.00 84 1019.5
20260507151217 59 360 8.7 13.9 0.00 0.00 0.00 84 1019.5
20260507151117 59 360 7.8 13.9 0.00 0.00 0.00 84 1019.4
20260507151018 59 360 8.7 13.9 0.00 0.00 0.00 84 1019.6
20260507150917 59 360 7.8 13.9 0.00 0.00 0.00 84 1019.4
20260507150822 59 360 8.7 15.6 0.00 0.00 0.00 84 1019.4
20260507150742 59 360 8.7 15.6 0.00 0.00 0.00 84 1019.4
20260507150616 59 360 7.8 15.6 0.00 0.00 0.00 84 1019.3
20260507150516 59 360 7.8 15.6 0.00 0.00 0.00 84 1019.3
20260507150437 59 360 7.8 15.6 0.00 0.00 0.00 84 1019.3
20260507150336 59 11 7.8 15.6 0.00 0.00 0.00 84 1019.3
20260507150258 59 360 8.7 15.6 0.00 0.00 0.00 84 1019.3
20260507150156 59 360 9.6 15.6 0.00 0.00 0.00 84 1019.4
20260507150020 59 360 9.6 14.8 0.00 0.00 0.00 84 1019.3
20260507145940 59 360 8.7 14.8 0.00 0.00 0.00 84 1019.4
20260507145841 59 360 7.8 14.8 0.00 0.00 0.00 84 1019.3
20260507145721 59 360 7.0 13.9 0.00 0.00 0.00 84 1019.3
20260507145620 59 360 6.1 13.9 0.00 0.00 0.00 84 1019.3
20260507145541 59 360 6.1 13.9 0.00 0.00 0.00 85 1019.4
20260507145421 59 360 7.0 13.9 0.00 0.00 0.00 85 1019.4
20260507145321 59 360 7.8 13.9 0.00 0.00 0.00 85 1019.4
20260507145227 59 360 7.8 13.9 0.00 0.00 0.00 85 1019.4
20260507145127 59 360 7.8 13.9 0.00 0.00 0.00 85 1019.4
20260507145027 59 360 7.8 13.9 0.00 0.00 0.00 85 1019.4
20260507144927 59 360 7.8 13.9 0.00 0.00 0.00 85 1019.3
20260507144827 59 360 7.8 13.9 0.00 0.00 0.00 85 1019.4
20260507144747 59 360 7.0 13.9 0.00 0.00 0.00 85 1019.4
20260507144625 59 360 6.1 12.2 0.00 0.00 0.00 85 1019.5
20260507144531 59 360 7.0 12.2 0.00 0.00 0.00 85 1019.5
20260507144431 59 360 7.8 12.2 0.00 0.00 0.00 85 1019.5
20260507144331 59 360 7.0 12.2 0.00 0.00 0.00 85 1019.5
20260507144232 59 360 6.1 11.3 0.00 0.00 0.00 85 1019.6
20260507144152 59 360 5.2 11.3 0.00 0.00 0.00 85 1019.5
20260507144032 59 360 6.1 11.3 0.00 0.00 0.00 85 1019.5
20260507143932 59 360 7.0 11.3 0.00 0.00 0.00 85 1019.6
20260507143816 59 360 7.0 11.3 0.00 0.00 0.00 85 1019.6
20260507143717 59 360 6.1 10.4 0.00 0.00 0.00 85 1019.7
20260507143617 59 360 5.2 10.4 0.00 0.00 0.00 85 1019.7
20260507143539 59 360 4.3 10.4 0.00 0.00 0.00 85 1019.7
20260507143416 59 360 4.3 10.4 0.00 0.00 0.00 85 1019.7
20260507143337 59 360 4.3 10.4 0.00 0.00 0.00 85 1019.8
20260507143217 59 360 5.2 10.4 0.00 0.00 0.00 85 1019.7
20260507143117 58 360 6.1 10.4 0.00 0.00 0.00 85 1019.7
20260507143038 59 360 7.0 10.4 0.00 0.00 0.00 85 1019.7
20260507142922 59 360 6.1 10.4 0.00 0.00 0.00 85 1019.7
20260507142823 59 360 5.2 9.6 0.00 0.00 0.00 85 1019.8
20260507142743 59 360 4.3 9.6 0.00 0.00 0.00 85 1019.9
20260507142621 59 360 3.5 8.7 0.00 0.00 0.00 85 1019.8
20260507142543 59 360 3.5 8.7 0.00 0.00 0.00 85 1019.8
20260507142416 59 360 4.3 8.7 0.00 0.00 0.00 85 1019.9
20260507142316 59 360 4.3 8.7 0.00 0.00 0.00 85 1019.8
20260507142221 59 360 4.3 8.7 0.00 0.00 0.00 85 1019.9
20260507142121 58 360 4.3 8.7 0.00 0.00 0.00 85 1019.8
20260507142021 58 360 5.2 12.2 0.00 0.00 0.00 85 1019.8
20260507141942 58 360 5.2 12.2 0.00 0.00 0.00 85 1019.8
20260507141821 58 360 5.2 12.2 0.00 0.00 0.00 85 1019.7
20260507141721 58 360 4.3 12.2 0.00 0.00 0.00 85 1019.7
20260507141622 58 360 3.5 12.2 0.00 0.00 0.00 85 1019.6
20260507141543 59 360 2.6 13.0 0.00 0.00 0.00 85 1019.6
20260507141427 58 360 2.6 13.0 0.00 0.00 0.00 85 1019.6
20260507141327 58 360 3.5 13.0 0.00 0.00 0.00 86 1019.5
20260507141248 58 360 5.2 13.9 0.00 0.00 0.00 85 1019.5
20260507141127 58 360 7.0 13.9 0.00 0.00 0.00 85 1019.3
20260507141028 58 360 7.8 13.9 0.00 0.00 0.00 86 1019.4
20260507140928 58 360 7.8 13.9 0.00 0.00 0.00 86 1019.2
20260507140849 58 360 7.0 13.9 0.00 0.00 0.00 85 1019.1
20260507140748 58 360 7.0 13.9 0.00 0.00 0.00 85 1019.2
20260507140632 58 360 7.8 13.9 0.00 0.00 0.00 85 1019.0
20260507140533 58 360 8.7 13.9 0.00 0.00 0.00 85 1019.1
20260507140434 58 360 7.8 14.8 0.00 0.00 0.00 85 1019.2
20260507140355 58 360 7.0 14.8 0.00 0.00 0.00 86 1019.2
20260507140235 58 360 7.0 14.8 0.00 0.00 0.00 86 1019.3
20260507140135 58 360 6.1 14.8 0.00 0.00 0.00 86 1019.2
20260507140019 58 360 6.1 14.8 0.00 0.00 0.00 86 1019.3
20260507135941 58 360 6.1 14.8 0.00 0.00 0.00 86 1019.3
20260507135843 58 360 7.0 14.8 0.00 0.00 0.00 86 1019.3
20260507135722 58 360 7.0 14.8 0.00 0.00 0.00 85 1019.3
20260507135622 58 360 7.0 14.8 0.00 0.00 0.00 86 1019.3
20260507135543 58 360 6.1 14.8 0.00 0.00 0.00 86 1019.3
20260507135416 58 360 5.2 12.2 0.00 0.00 0.00 86 1019.3
20260507135317 58 360 6.1 12.2 0.00 0.00 0.00 86 1019.3
20260507135220 58 360 5.2 12.2 0.00 0.00 0.00 86 1019.3
20260507135120 58 360 6.1 12.2 0.00 0.00 0.00 86 1019.3
20260507135021 58 360 7.0 12.2 0.00 0.00 0.00 86 1019.4
20260507134942 58 360 7.0 12.2 0.00 0.00 0.00 86 1019.4
20260507134903 58 360 5.2 11.3 0.00 0.00 0.00 86 1019.5
20260507134715 58 360 6.1 11.3 0.00 0.00 0.00 86 1019.3
20260507134616 58 360 5.2 11.3 0.00 0.00 0.00 86 1019.4
20260507134521 58 360 5.2 11.3 0.00 0.00 0.00 86 1019.2
20260507134421 58 360 6.1 11.3 0.00 0.00 0.00 86 1019.2
20260507134342 58 360 6.1 11.3 0.00 0.00 0.00 86 1019.1
20260507134221 58 360 6.1 11.3 0.00 0.00 0.00 86 1019.1
20260507134141 58 360 6.1 11.3 0.00 0.00 0.00 86 1019.0
20260507134021 58 360 6.1 11.3 0.00 0.00 0.00 86 1019.0
20260507133924 58 360 6.1 11.3 0.00 0.00 0.00 86 1018.9
20260507133844 58 360 5.2 11.3 0.00 0.00 0.00 86 1018.9
20260507133727 58 360 5.2 9.6 0.00 0.00 0.00 86 1018.9
20260507133648 58 360 5.2 13.9 0.00 0.00 0.00 86 1018.9
20260507133548 58 360 5.2 13.9 0.00 0.00 0.00 86 1018.8
20260507133426 58 309 5.2 13.9 0.00 0.00 0.00 86 1018.9
20260507133327 58 360 5.2 13.9 0.00 0.00 0.00 86 1018.9
20260507133227 58 360 5.2 13.9 0.00 0.00 0.00 86 1018.9
20260507133127 58 360 5.2 13.9 0.00 0.00 0.00 86 1018.9
20260507133028 58 360 5.2 13.9 0.00 0.00 0.00 86 1018.9
20260507132932 58 360 6.1 13.9 0.00 0.00 0.00 86 1018.9
20260507132853 58 360 7.0 14.8 0.00 0.00 0.00 86 1018.8
20260507132733 58 360 7.0 14.8 0.00 0.00 0.00 86 1018.7
20260507132652 58 360 7.0 14.8 0.00 0.00 0.00 86 1018.8
20260507132532 58 360 7.0 14.8 0.00 0.00 0.00 86 1018.6
20260507132433 58 360 6.1 14.8 0.00 0.00 0.00 86 1018.7
20260507132334 58 360 7.0 14.8 0.00 0.00 0.00 87 1018.6
20260507132219 58 360 7.0 14.8 0.00 0.00 0.00 87 1018.5
20260507132139 58 360 7.8 14.8 0.00 0.00 0.00 86 1018.5
20260507132018 58 360 7.8 14.8 0.00 0.00 0.00 86 1018.5
20260507131919 58 360 7.8 14.8 0.00 0.00 0.00 87 1018.5
20260507131819 58 360 7.8 14.8 0.00 0.00 0.00 87 1018.5
20260507131721 58 360 7.8 16.5 0.00 0.00 0.00 87 1018.5
20260507131620 58 360 7.0 16.5 0.00 0.00 0.00 86 1018.6
20260507131546 58 360 7.0 16.5 0.00 0.00 0.00 86 1018.7
20260507131426 58 360 7.0 16.5 0.00 0.00 0.00 86 1018.7
20260507131326 58 360 7.0 16.5 0.00 0.00 0.00 86 1018.6
20260507131227 58 360 7.8 16.5 0.00 0.00 0.00 86 1018.6
20260507131126 58 360 7.8 16.5 0.00 0.00 0.00 86 1018.7